Time,TemperatureF,DewpointF,PressureIn,WindDirection,WindDirectionDegrees,WindSpeedMPH,WindSpeedGustMPH,Humidity,HourlyPrecipIn,Conditions,Clouds,dailyrainin,SoftwareType,DateUTC
2013-01-08 00:00:00,24.1,18.2,30.27,East,82,0.0,0.0,78,0.00,,SCT,0.00,WeatherDisplay:10.37,2013-01-08 05:00:00,
2013-01-08 00:03:00,24.1,18.2,30.26,East,82,0.0,0.0,78,0.00,,SCT,0.00,WeatherDisplay:10.37,2013-01-08 05:03:00,
2013-01-08 00:04:00,24.1,18.2,30.26,East,82,0.0,0.0,78,0.00,,SCT,0.00,WeatherDisplay:10.37,2013-01-08 05:04:00,
2013-01-08 00:05:00,24.1,18.5,30.26,East,82,0.0,0.0,79,0.00,,SCT,0.00,WeatherDisplay:10.37,2013-01-08 05:05:00,
2013-01-08 00:07:00,24.1,18.2,30.26,East,82,0.0,0.0,78,0.00,,SCT,0.00,WeatherDisplay:10.37,2013-01-08 05:07:00,
2013-01-08 00:10:00,24.1,18.5,30.26,East,82,0.0,0.0,79,0.00,,SCT,0.00,WeatherDisplay:10.37,2013-01-08 05:10:00,
2013-01-08 00:12:00,24.1,18.5,30.26,East,82,0.0,0.0,79,0.00,,SCT,0.00,WeatherDisplay:10.37,2013-01-08 05:12:00,
2013-01-08 00:13:00,24.1,18.5,30.26,East,82,0.0,0.0,79,0.00,,SCT,0.00,WeatherDisplay:10.37,2013-01-08 05:13:00,
2013-01-08 00:15:00,24.2,18.6,30.26,East,82,0.0,0.0,79,0.00,,SCT,0.00,WeatherDisplay:10.37,2013-01-08 05:15:00,
2013-01-08 00:16:00,24.2,18.6,30.26,East,82,0.0,0.0,79,0.00,,SCT,0.00,WeatherDisplay:10.37,2013-01-08 05:16:00,
2013-01-08 00:18:00,24.4,18.8,30.26,East,82,0.0,0.0,79,0.00,,SCT,0.00,WeatherDisplay:10.37,2013-01-08 05:18:00,
2013-01-08 00:20:00,24.4,18.8,30.26,East,82,0.0,0.0,79,0.00,,SCT,0.00,WeatherDisplay:10.37,2013-01-08 05:20:00,
2013-01-08 00:21:00,24.5,19.2,30.26,East,82,0.0,0.0,80,0.00,,SCT,0.00,WeatherDisplay:10.37,2013-01-08 05:21:00,
2013-01-08 00:23:00,24.7,19.1,30.26,East,82,0.0,0.0,79,0.00,,SCT,0.00,WeatherDisplay:10.37,2013-01-08 05:23:00,
2013-01-08 00:26:00,24.7,19.1,30.27,East,82,0.0,0.0,79,0.00,,SCT,0.00,WeatherDisplay:10.37,2013-01-08 05:26:00,
2013-01-08 00:29:00,24.8,19.2,30.26,East,82,0.0,0.0,79,0.00,,SCT,0.00,WeatherDisplay:10.37,2013-01-08 05:29:00,
2013-01-08 00:31:00,24.8,19.2,30.26,East,82,0.0,0.0,79,0.00,,SCT,0.00,WeatherDisplay:10.37,2013-01-08 05:31:00,
2013-01-08 00:32:00,24.8,19.2,30.26,East,82,0.0,0.0,79,0.00,,SCT,0.00,WeatherDisplay:10.37,2013-01-08 05:32:00,
2013-01-08 00:36:00,24.8,19.2,30.26,East,82,0.0,0.0,79,0.00,,SCT,0.00,WeatherDisplay:10.37,2013-01-08 05:36:00,
2013-01-08 00:38:00,25.0,19.7,30.26,East,82,0.0,0.0,80,0.00,,SCT,0.00,WeatherDisplay:10.37,2013-01-08 05:38:00,
2013-01-08 00:42:00,25.0,19.4,30.26,East,86,0.0,0.0,79,0.00,,SCT,0.00,WeatherDisplay:10.37,2013-01-08 05:42:00,
2013-01-08 00:44:00,25.0,19.4,30.26,East,86,0.0,0.0,79,0.00,,SCT,0.00,WeatherDisplay:10.37,2013-01-08 05:44:00,
2013-01-08 00:49:00,25.0,19.4,30.26,East,86,0.0,0.0,79,0.00,,SCT,0.00,WeatherDisplay:10.37,2013-01-08 05:49:00,
2013-01-08 00:52:00,24.8,19.2,30.25,East,86,0.0,0.0,79,0.00,,SCT,0.00,WeatherDisplay:10.37,2013-01-08 05:52:00,
2013-01-08 00:55:00,24.8,19.2,30.26,East,86,0.0,0.0,79,0.00,,SCT,0.00,WeatherDisplay:10.37,2013-01-08 05:55:00,
2013-01-08 00:59:00,24.8,19.2,30.26,East,86,0.0,0.0,79,0.00,,SCT,0.00,WeatherDisplay:10.37,2013-01-08 05:59:00,
2013-01-08 01:03:00,24.7,19.1,30.26,East,86,0.0,0.0,79,0.00,,SCT,0.00,WeatherDisplay:10.37,2013-01-08 06:03:00,
2013-01-08 01:06:00,24.7,19.1,30.25,East,86,0.0,0.0,79,0.00,,SCT,0.00,WeatherDisplay:10.37,2013-01-08 06:06:00,
2013-01-08 01:09:00,24.7,19.1,30.25,East,86,0.0,0.0,79,0.00,,SCT,0.00,WeatherDisplay:10.37,2013-01-08 06:09:00,
2013-01-08 01:10:00,24.5,18.9,30.25,East,86,0.0,0.0,79,0.00,,SCT,0.00,WeatherDisplay:10.37,2013-01-08 06:10:00,
2013-01-08 01:15:00,24.5,18.9,30.25,East,86,0.0,0.0,79,0.00,,SCT,0.00,WeatherDisplay:10.37,2013-01-08 06:15:00,
2013-01-08 01:17:00,24.5,18.9,30.25,East,86,0.0,0.0,79,0.00,,SCT,0.00,WeatherDisplay:10.37,2013-01-08 06:17:00,
2013-01-08 01:20:00,24.5,19.2,30.25,East,86,0.0,0.0,80,0.00,,SCT,0.00,WeatherDisplay:10.37,2013-01-08 06:20:00,
2013-01-08 01:22:00,24.4,18.8,30.26,East,86,0.0,0.0,79,0.00,,SCT,0.00,WeatherDisplay:10.37,2013-01-08 06:22:00,
2013-01-08 01:25:00,24.2,18.6,30.26,East,86,0.0,0.0,79,0.00,,SCT,0.00,WeatherDisplay:10.37,2013-01-08 06:25:00,
2013-01-08 01:29:00,24.1,18.5,30.26,East,86,0.0,0.0,79,0.00,,SCT,0.00,WeatherDisplay:10.37,2013-01-08 06:29:00,
2013-01-08 01:30:00,24.1,18.5,30.26,East,86,0.0,0.0,79,0.00,,SCT,0.00,WeatherDisplay:10.37,2013-01-08 06:30:00,
2013-01-08 01:33:00,23.9,18.3,30.27,East,86,0.0,0.0,79,0.00,,SCT,0.00,WeatherDisplay:10.37,2013-01-08 06:33:00,
2013-01-08 01:38:00,23.8,18.2,30.26,East,86,0.0,0.0,79,0.00,,SCT,0.00,WeatherDisplay:10.37,2013-01-08 06:38:00,
2013-01-08 01:43:00,23.5,17.9,30.27,East,86,0.0,0.0,79,0.00,,SCT,0.00,WeatherDisplay:10.37,2013-01-08 06:43:00,
2013-01-08 01:45:00,23.5,17.9,30.27,East,86,0.0,0.0,79,0.00,,SCT,0.00,WeatherDisplay:10.37,2013-01-08 06:45:00,
2013-01-08 01:49:00,23.3,17.7,30.27,East,86,0.0,0.0,79,0.00,,SCT,0.00,WeatherDisplay:10.37,2013-01-08 06:49:00,
2013-01-08 01:52:00,23.3,17.7,30.27,East,86,0.0,0.0,79,0.00,,SCT,0.00,WeatherDisplay:10.37,2013-01-08 06:52:00,
2013-01-08 01:54:00,23.2,17.7,30.27,East,86,0.0,0.0,79,0.00,,SCT,0.00,WeatherDisplay:10.37,2013-01-08 06:54:00,
2013-01-08 01:57:00,23.2,17.7,30.27,East,86,0.0,0.0,79,0.00,,SCT,0.00,WeatherDisplay:10.37,2013-01-08 06:57:00,
2013-01-08 02:01:00,23.0,17.5,30.27,East,86,0.0,0.0,79,0.00,,SCT,0.00,WeatherDisplay:10.37,2013-01-08 07:01:00,
2013-01-08 02:02:00,22.9,17.4,30.27,East,86,0.0,0.0,79,0.00,,SCT,0.00,WeatherDisplay:10.37,2013-01-08 07:02:00,
2013-01-08 02:03:00,22.9,17.4,30.27,East,86,0.0,0.0,79,0.00,,SCT,0.00,WeatherDisplay:10.37,2013-01-08 07:03:00,
2013-01-08 02:05:00,22.7,17.2,30.27,East,86,0.0,0.0,79,0.00,,SCT,0.00,WeatherDisplay:10.37,2013-01-08 07:05:00,
2013-01-08 02:06:00,22.5,17.0,30.27,East,86,0.0,0.0,79,0.00,,SCT,0.00,WeatherDisplay:10.37,2013-01-08 07:06:00,
2013-01-08 02:08:00,22.4,16.9,30.27,East,86,0.0,0.0,79,0.00,,SCT,0.00,WeatherDisplay:10.37,2013-01-08 07:08:00,
2013-01-08 02:12:00,22.2,16.7,30.27,East,86,0.0,0.0,79,0.00,,SCT,0.00,WeatherDisplay:10.37,2013-01-08 07:12:00,
2013-01-08 02:13:00,22.1,16.6,30.27,East,86,0.0,0.0,79,0.00,,SCT,0.00,WeatherDisplay:10.37,2013-01-08 07:13:00,
2013-01-08 02:15:00,21.9,16.4,30.27,East,86,0.0,0.0,79,0.00,,SCT,0.00,WeatherDisplay:10.37,2013-01-08 07:15:00,
2013-01-08 02:16:00,21.9,16.4,30.27,East,86,0.0,0.0,79,0.00,,SCT,0.00,WeatherDisplay:10.37,2013-01-08 07:16:00,
2013-01-08 02:17:00,21.8,16.3,30.27,East,86,0.0,0.0,79,0.00,,SCT,0.00,WeatherDisplay:10.37,2013-01-08 07:17:00,
2013-01-08 02:20:00,21.8,16.3,30.27,East,86,0.0,0.0,79,0.00,,SCT,0.00,WeatherDisplay:10.37,2013-01-08 07:20:00,
2013-01-08 02:21:00,21.6,16.1,30.27,East,86,0.0,0.0,79,0.00,,SCT,0.00,WeatherDisplay:10.37,2013-01-08 07:21:00,
2013-01-08 02:24:00,21.6,16.4,30.27,East,86,0.0,0.0,80,0.00,,SCT,0.00,WeatherDisplay:10.37,2013-01-08 07:24:00,
2013-01-08 02:26:00,21.6,16.1,30.27,East,86,0.0,0.0,79,0.00,,SCT,0.00,WeatherDisplay:10.37,2013-01-08 07:26:00,
2013-01-08 02:27:00,21.6,16.1,30.27,East,86,0.0,0.0,79,0.00,,SCT,0.00,WeatherDisplay:10.37,2013-01-08 07:27:00,
2013-01-08 02:28:00,21.8,16.6,30.27,East,86,0.0,0.0,80,0.00,,SCT,0.00,WeatherDisplay:10.37,2013-01-08 07:28:00,
2013-01-08 02:33:00,21.9,16.7,30.27,East,86,0.0,0.0,80,0.00,,SCT,0.00,WeatherDisplay:10.37,2013-01-08 07:33:00,
2013-01-08 02:34:00,21.9,16.7,30.27,East,86,0.0,0.0,80,0.00,,SCT,0.00,WeatherDisplay:10.37,2013-01-08 07:34:00,
2013-01-08 02:38:00,22.1,16.9,30.27,ESE,109,0.0,0.0,80,0.00,,SCT,0.00,WeatherDisplay:10.37,2013-01-08 07:38:00,
2013-01-08 02:39:00,22.1,16.9,30.27,ESE,109,0.0,0.0,80,0.00,,SCT,0.00,WeatherDisplay:10.37,2013-01-08 07:39:00,
2013-01-08 02:40:00,22.2,17.0,30.27,ESE,109,0.0,0.0,80,0.00,,SCT,0.00,WeatherDisplay:10.37,2013-01-08 07:40:00,
2013-01-08 02:43:00,22.2,17.0,30.27,ESE,109,4.6,4.6,80,0.00,,SCT,0.00,WeatherDisplay:10.37,2013-01-08 07:43:00,
2013-01-08 02:45:00,22.4,17.2,30.27,ESE,107,4.6,4.6,80,0.00,,SCT,0.00,WeatherDisplay:10.37,2013-01-08 07:45:00,
2013-01-08 02:46:00,22.4,17.5,30.27,ESE,107,3.5,3.5,81,0.00,,SCT,0.00,WeatherDisplay:10.37,2013-01-08 07:46:00,
2013-01-08 02:49:00,22.5,17.3,30.27,ESE,107,2.3,2.3,80,0.00,,SCT,0.00,WeatherDisplay:10.37,2013-01-08 07:49:00,
2013-01-08 02:51:00,22.7,17.7,30.27,ESE,107,2.3,2.3,81,0.00,,SCT,0.00,WeatherDisplay:10.37,2013-01-08 07:51:00,
2013-01-08 02:53:00,22.7,17.7,30.27,ESE,107,0.0,0.0,81,0.00,,SCT,0.00,WeatherDisplay:10.37,2013-01-08 07:53:00,
2013-01-08 02:56:00,22.9,17.9,30.27,ESE,107,0.0,0.0,81,0.00,,SCT,0.00,WeatherDisplay:10.37,2013-01-08 07:56:00,
2013-01-08 02:59:00,22.9,17.7,30.27,ESE,107,0.0,0.0,80,0.00,,SCT,0.00,WeatherDisplay:10.37,2013-01-08 07:59:00,
2013-01-08 03:00:00,22.9,17.7,30.27,ESE,107,0.0,0.0,80,0.00,,SCT,0.00,WeatherDisplay:10.37,2013-01-08 08:00:00,
2013-01-08 03:01:00,23.0,18.0,30.27,ESE,107,0.0,0.0,81,0.00,,SCT,0.00,WeatherDisplay:10.37,2013-01-08 08:01:00,
2013-01-08 03:02:00,23.0,18.0,30.27,ESE,107,0.0,0.0,81,0.00,,SCT,0.00,WeatherDisplay:10.37,2013-01-08 08:02:00,
2013-01-08 03:05:00,23.0,17.7,30.27,ESE,107,0.0,0.0,80,0.00,,SCT,0.00,WeatherDisplay:10.37,2013-01-08 08:05:00,
2013-01-08 03:06:00,22.9,17.7,30.27,ESE,107,0.0,0.0,80,0.00,,SCT,0.00,WeatherDisplay:10.37,2013-01-08 08:06:00,
2013-01-08 03:07:00,22.9,17.7,30.27,ESE,107,0.0,0.0,80,0.00,,SCT,0.00,WeatherDisplay:10.37,2013-01-08 08:07:00,
2013-01-08 03:09:00,22.7,17.5,30.26,ESE,107,0.0,0.0,80,0.00,,SCT,0.00,WeatherDisplay:10.37,2013-01-08 08:09:00,
2013-01-08 03:12:00,22.5,17.3,30.27,ESE,107,0.0,0.0,80,0.00,,SCT,0.00,WeatherDisplay:10.37,2013-01-08 08:12:00,
2013-01-08 03:13:00,22.5,17.3,30.27,ESE,107,0.0,0.0,80,0.00,,SCT,0.00,WeatherDisplay:10.37,2013-01-08 08:13:00,
2013-01-08 03:14:00,22.5,17.3,30.27,ESE,107,0.0,0.0,80,0.00,,SCT,0.00,WeatherDisplay:10.37,2013-01-08 08:14:00,
2013-01-08 03:16:00,22.5,17.3,30.27,ESE,107,0.0,0.0,80,0.00,,SCT,0.00,WeatherDisplay:10.37,2013-01-08 08:16:00,
2013-01-08 03:17:00,22.5,17.3,30.27,ESE,107,0.0,0.0,80,0.00,,SCT,0.00,WeatherDisplay:10.37,2013-01-08 08:17:00,
2013-01-08 03:21:00,22.4,17.2,30.27,ESE,107,0.0,0.0,80,0.00,,SCT,0.00,WeatherDisplay:10.37,2013-01-08 08:21:00,
2013-01-08 03:22:00,22.4,17.2,30.27,ESE,107,0.0,0.0,80,0.00,,SCT,0.00,WeatherDisplay:10.37,2013-01-08 08:22:00,
2013-01-08 03:23:00,22.4,17.2,30.27,ESE,107,0.0,0.0,80,0.00,,SCT,0.00,WeatherDisplay:10.37,2013-01-08 08:23:00,
2013-01-08 03:27:00,22.4,17.2,30.27,ESE,107,0.0,0.0,80,0.00,,SCT,0.00,WeatherDisplay:10.37,2013-01-08 08:27:00,
2013-01-08 03:28:00,22.2,17.0,30.27,ESE,107,0.0,0.0,80,0.00,,SCT,0.00,WeatherDisplay:10.37,2013-01-08 08:28:00,
2013-01-08 03:29:00,22.2,17.0,30.27,ESE,107,0.0,0.0,80,0.00,,SCT,0.00,WeatherDisplay:10.37,2013-01-08 08:29:00,
2013-01-08 03:32:00,22.2,17.0,30.27,ESE,107,0.0,0.0,80,0.00,,SCT,0.00,WeatherDisplay:10.37,2013-01-08 08:32:00,
2013-01-08 03:33:00,22.2,17.0,30.27,ESE,107,0.0,0.0,80,0.00,,SCT,0.00,WeatherDisplay:10.37,2013-01-08 08:33:00,
2013-01-08 03:36:00,22.2,17.0,30.27,ESE,107,0.0,0.0,80,0.00,,SCT,0.00,WeatherDisplay:10.37,2013-01-08 08:36:00,
2013-01-08 03:37:00,22.2,17.0,30.27,ESE,107,0.0,0.0,80,0.00,,SCT,0.00,WeatherDisplay:10.37,2013-01-08 08:37:00,
2013-01-08 03:38:00,22.2,17.0,30.27,ESE,107,0.0,0.0,80,0.00,,SCT,0.00,WeatherDisplay:10.37,2013-01-08 08:38:00,
2013-01-08 03:42:00,22.1,16.9,30.26,ESE,107,0.0,0.0,80,0.00,,SCT,0.00,WeatherDisplay:10.37,2013-01-08 08:42:00,
2013-01-08 03:43:00,22.1,16.9,30.26,ESE,107,0.0,0.0,80,0.00,,SCT,0.00,WeatherDisplay:10.37,2013-01-08 08:43:00,
2013-01-08 03:45:00,22.1,16.9,30.26,ESE,107,0.0,0.0,80,0.00,,SCT,0.00,WeatherDisplay:10.37,2013-01-08 08:45:00,
2013-01-08 03:46:00,21.9,16.7,30.26,ESE,107,0.0,0.0,80,0.00,,SCT,0.00,WeatherDisplay:10.37,2013-01-08 08:46:00,
2013-01-08 03:49:00,21.8,16.6,30.26,ESE,107,0.0,0.0,80,0.00,,SCT,0.00,WeatherDisplay:10.37,2013-01-08 08:49:00,
2013-01-08 03:50:00,21.8,16.6,30.26,ESE,107,0.0,0.0,80,0.00,,SCT,0.00,WeatherDisplay:10.37,2013-01-08 08:50:00,
2013-01-08 03:51:00,21.6,16.4,30.26,ESE,107,0.0,0.0,80,0.00,,SCT,0.00,WeatherDisplay:10.37,2013-01-08 08:51:00,
2013-01-08 03:56:00,21.4,16.2,30.26,ESE,107,0.0,0.0,80,0.00,,SCT,0.00,WeatherDisplay:10.37,2013-01-08 08:56:00,
2013-01-08 03:57:00,21.3,16.1,30.26,ESE,107,0.0,0.0,80,0.00,,SCT,0.00,WeatherDisplay:10.37,2013-01-08 08:57:00,
2013-01-08 04:01:00,21.1,15.9,30.26,ESE,107,0.0,0.0,80,0.00,,SCT,0.00,WeatherDisplay:10.37,2013-01-08 09:01:00,
2013-01-08 04:02:00,21.1,15.9,30.25,ESE,107,0.0,0.0,80,0.00,,SCT,0.00,WeatherDisplay:10.37,2013-01-08 09:02:00,
2013-01-08 04:03:00,21.1,15.9,30.25,ESE,107,0.0,0.0,80,0.00,,SCT,0.00,WeatherDisplay:10.37,2013-01-08 09:03:00,
2013-01-08 04:05:00,21.1,15.9,30.26,ESE,107,0.0,0.0,80,0.00,,SCT,0.00,WeatherDisplay:10.37,2013-01-08 09:05:00,
2013-01-08 04:08:00,21.0,15.8,30.26,ESE,107,0.0,0.0,80,0.00,,SCT,0.00,WeatherDisplay:10.37,2013-01-08 09:08:00,
2013-01-08 04:09:00,21.0,15.8,30.26,ESE,107,0.0,0.0,80,0.00,,SCT,0.00,WeatherDisplay:10.37,2013-01-08 09:09:00,
2013-01-08 04:10:00,21.0,15.8,30.26,ESE,107,0.0,0.0,80,0.00,,SCT,0.00,WeatherDisplay:10.37,2013-01-08 09:10:00,
2013-01-08 04:11:00,20.8,15.6,30.26,ESE,107,0.0,0.0,80,0.00,,SCT,0.00,WeatherDisplay:10.37,2013-01-08 09:11:00,
2013-01-08 04:14:00,20.8,15.6,30.26,ESE,107,0.0,0.0,80,0.00,,SCT,0.00,WeatherDisplay:10.37,2013-01-08 09:14:00,
2013-01-08 04:16:00,20.8,15.6,30.26,ESE,107,0.0,0.0,80,0.00,,SCT,0.00,WeatherDisplay:10.37,2013-01-08 09:16:00,
2013-01-08 04:17:00,20.8,15.6,30.26,ESE,107,0.0,0.0,80,0.00,,SCT,0.00,WeatherDisplay:10.37,2013-01-08 09:17:00,
2013-01-08 04:20:00,20.8,15.6,30.26,ESE,107,0.0,0.0,80,0.00,,SCT,0.00,WeatherDisplay:10.37,2013-01-08 09:20:00,
2013-01-08 04:21:00,20.6,15.4,30.26,ESE,107,0.0,0.0,80,0.00,,SCT,0.00,WeatherDisplay:10.37,2013-01-08 09:21:00,
2013-01-08 04:23:00,20.6,15.4,30.26,ESE,107,0.0,0.0,80,0.00,,SCT,0.00,WeatherDisplay:10.37,2013-01-08 09:23:00,
2013-01-08 04:26:00,20.6,15.4,30.26,ESE,107,0.0,0.0,80,0.00,,SCT,0.00,WeatherDisplay:10.37,2013-01-08 09:26:00,
2013-01-08 04:29:00,20.6,15.4,30.26,ESE,107,0.0,0.0,80,0.00,,SCT,0.00,WeatherDisplay:10.37,2013-01-08 09:29:00,
2013-01-08 04:32:00,20.6,15.4,30.26,ESE,107,0.0,0.0,80,0.00,,SCT,0.00,WeatherDisplay:10.37,2013-01-08 09:32:00,
2013-01-08 04:34:00,20.6,15.4,30.27,ESE,107,0.0,0.0,80,0.00,,SCT,0.00,WeatherDisplay:10.37,2013-01-08 09:34:00,
2013-01-08 04:35:00,20.6,15.4,30.27,ESE,107,0.0,0.0,80,0.00,,SCT,0.00,WeatherDisplay:10.37,2013-01-08 09:35:00,
2013-01-08 04:36:00,20.6,15.4,30.27,ESE,107,0.0,0.0,80,0.00,,SCT,0.00,WeatherDisplay:10.37,2013-01-08 09:36:00,
2013-01-08 04:37:00,20.6,15.4,30.27,ESE,107,0.0,0.0,80,0.00,,SCT,0.00,WeatherDisplay:10.37,2013-01-08 09:37:00,
2013-01-08 04:39:00,20.6,15.4,30.27,ESE,107,0.0,0.0,80,0.00,,SCT,0.00,WeatherDisplay:10.37,2013-01-08 09:39:00,
2013-01-08 04:41:00,20.6,15.4,30.27,ESE,107,0.0,0.0,80,0.00,,SCT,0.00,WeatherDisplay:10.37,2013-01-08 09:41:00,
2013-01-08 04:43:00,20.6,15.4,30.27,ESE,107,0.0,0.0,80,0.00,,SCT,0.00,WeatherDisplay:10.37,2013-01-08 09:43:00,
2013-01-08 04:45:00,20.6,15.4,30.27,ESE,107,0.0,0.0,80,0.00,,SCT,0.00,WeatherDisplay:10.37,2013-01-08 09:45:00,
2013-01-08 04:48:00,20.5,15.3,30.27,ESE,107,0.0,0.0,80,0.00,,SCT,0.00,WeatherDisplay:10.37,2013-01-08 09:48:00,
2013-01-08 04:50:00,20.2,15.0,30.27,ESE,107,0.0,0.0,80,0.00,,SCT,0.00,WeatherDisplay:10.37,2013-01-08 09:50:00,
2013-01-08 04:51:00,20.2,15.0,30.27,ESE,107,0.0,0.0,80,0.00,,SCT,0.00,WeatherDisplay:10.37,2013-01-08 09:51:00,
2013-01-08 04:53:00,20.0,14.8,30.27,ESE,107,0.0,0.0,80,0.00,,SCT,0.00,WeatherDisplay:10.37,2013-01-08 09:53:00,
2013-01-08 04:56:00,19.9,14.7,30.27,ESE,107,0.0,0.0,80,0.00,,SCT,0.00,WeatherDisplay:10.37,2013-01-08 09:56:00,
2013-01-08 04:58:00,19.9,14.7,30.27,ESE,107,0.0,0.0,80,0.00,,SCT,0.00,WeatherDisplay:10.37,2013-01-08 09:58:00,
2013-01-08 04:59:00,19.9,14.7,30.26,ESE,107,0.0,0.0,80,0.00,,SCT,0.00,WeatherDisplay:10.37,2013-01-08 09:59:00,
2013-01-08 05:03:00,20.0,14.8,30.27,ESE,107,0.0,0.0,80,0.00,,SCT,0.00,WeatherDisplay:10.37,2013-01-08 10:03:00,
2013-01-08 05:05:00,20.0,14.8,30.28,ESE,107,3.0,3.0,80,0.00,,SCT,0.00,WeatherDisplay:10.37,2013-01-08 10:05:00,
2013-01-08 05:07:00,20.0,14.8,30.27,ESE,107,2.3,2.3,80,0.00,,SCT,0.00,WeatherDisplay:10.37,2013-01-08 10:07:00,
2013-01-08 05:09:00,20.0,14.8,30.27,ESE,107,2.3,2.3,80,0.00,,SCT,0.00,WeatherDisplay:10.37,2013-01-08 10:09:00,
2013-01-08 05:12:00,20.0,15.1,30.27,ESE,107,3.5,3.5,81,0.00,,SCT,0.00,WeatherDisplay:10.37,2013-01-08 10:12:00,
2013-01-08 05:13:00,20.0,15.1,30.27,ESE,107,3.5,3.5,81,0.00,,SCT,0.00,WeatherDisplay:10.37,2013-01-08 10:13:00,
2013-01-08 05:14:00,20.2,15.3,30.27,ESE,107,2.3,2.3,81,0.00,,SCT,0.00,WeatherDisplay:10.37,2013-01-08 10:14:00,
2013-01-08 05:15:00,20.2,15.3,30.27,ESE,107,2.3,2.3,81,0.00,,SCT,0.00,WeatherDisplay:10.37,2013-01-08 10:15:00,
2013-01-08 05:18:00,20.3,15.4,30.27,ESE,107,0.0,0.0,81,0.00,,SCT,0.00,WeatherDisplay:10.37,2013-01-08 10:18:00,
2013-01-08 05:19:00,20.3,15.4,30.27,ESE,107,0.0,0.0,81,0.00,,SCT,0.00,WeatherDisplay:10.37,2013-01-08 10:19:00,
2013-01-08 05:20:00,20.3,15.4,30.27,ESE,107,0.0,0.0,81,0.00,,SCT,0.00,WeatherDisplay:10.37,2013-01-08 10:20:00,
2013-01-08 05:24:00,20.3,15.4,30.27,ESE,107,0.0,0.0,81,0.00,,SCT,0.00,WeatherDisplay:10.37,2013-01-08 10:24:00,
2013-01-08 05:26:00,20.3,15.4,30.27,ESE,107,0.0,0.0,81,0.00,,SCT,0.00,WeatherDisplay:10.37,2013-01-08 10:26:00,
2013-01-08 05:28:00,20.3,15.4,30.27,ESE,107,0.0,0.0,81,0.00,,SCT,0.00,WeatherDisplay:10.37,2013-01-08 10:28:00,
2013-01-08 05:29:00,20.3,15.4,30.27,ESE,107,0.0,0.0,81,0.00,,SCT,0.00,WeatherDisplay:10.37,2013-01-08 10:29:00,
2013-01-08 05:30:00,20.3,15.4,30.27,ESE,107,0.0,0.0,81,0.00,,SCT,0.00,WeatherDisplay:10.37,2013-01-08 10:30:00,
2013-01-08 05:33:00,20.3,15.4,30.27,ESE,107,0.0,0.0,81,0.00,,SCT,0.00,WeatherDisplay:10.37,2013-01-08 10:33:00,
2013-01-08 05:35:00,20.3,15.4,30.27,ESE,107,0.0,0.0,81,0.00,,SCT,0.00,WeatherDisplay:10.37,2013-01-08 10:35:00,
2013-01-08 05:37:00,20.3,15.4,30.27,ESE,107,0.0,0.0,81,0.00,,SCT,0.00,WeatherDisplay:10.37,2013-01-08 10:37:00,
2013-01-08 05:38:00,20.3,15.4,30.27,ESE,107,0.0,0.0,81,0.00,,SCT,0.00,WeatherDisplay:10.37,2013-01-08 10:38:00,
2013-01-08 05:39:00,20.3,15.4,30.28,ESE,107,0.0,0.0,81,0.00,,SCT,0.00,WeatherDisplay:10.37,2013-01-08 10:39:00,
2013-01-08 05:41:00,20.3,15.4,30.28,ESE,107,0.0,0.0,81,0.00,,SCT,0.00,WeatherDisplay:10.37,2013-01-08 10:41:00,
2013-01-08 05:43:00,20.3,15.4,30.28,ESE,107,0.0,0.0,81,0.00,,SCT,0.00,WeatherDisplay:10.37,2013-01-08 10:43:00,
2013-01-08 05:44:00,20.5,15.6,30.28,ESE,107,0.0,0.0,81,0.00,,SCT,0.00,WeatherDisplay:10.37,2013-01-08 10:44:00,
2013-01-08 05:48:00,20.5,15.3,30.28,ESE,107,0.0,0.0,80,0.00,,SCT,0.00,WeatherDisplay:10.37,2013-01-08 10:48:00,
2013-01-08 05:53:00,20.5,15.3,30.28,ESE,107,0.0,0.0,80,0.00,,SCT,0.00,WeatherDisplay:10.37,2013-01-08 10:53:00,
2013-01-08 05:56:00,20.5,15.3,30.28,ESE,107,0.0,0.0,80,0.00,,SCT,0.00,WeatherDisplay:10.37,2013-01-08 10:56:00,
2013-01-08 05:58:00,20.5,15.3,30.28,ESE,107,0.0,0.0,80,0.00,,SCT,0.00,WeatherDisplay:10.37,2013-01-08 10:58:00,
2013-01-08 06:01:00,20.3,15.1,30.28,ESE,107,0.0,0.0,80,0.00,,SCT,0.00,WeatherDisplay:10.37,2013-01-08 11:01:00,
2013-01-08 06:03:00,20.3,15.1,30.28,ESE,107,0.0,0.0,80,0.00,,SCT,0.00,WeatherDisplay:10.37,2013-01-08 11:03:00,
2013-01-08 06:04:00,20.3,15.1,30.28,ESE,107,0.0,0.0,80,0.00,,SCT,0.00,WeatherDisplay:10.37,2013-01-08 11:04:00,
2013-01-08 06:06:00,20.2,15.0,30.30,ESE,107,0.0,0.0,80,0.00,,SCT,0.00,WeatherDisplay:10.37,2013-01-08 11:06:00,
2013-01-08 06:08:00,20.2,15.0,30.30,ESE,107,0.0,0.0,80,0.00,,SCT,0.00,WeatherDisplay:10.37,2013-01-08 11:08:00,
2013-01-08 06:09:00,20.2,15.0,30.30,ESE,107,0.0,0.0,80,0.00,,SCT,0.00,WeatherDisplay:10.37,2013-01-08 11:09:00,
2013-01-08 06:10:00,20.2,15.0,30.30,ESE,107,0.0,0.0,80,0.00,,SCT,0.00,WeatherDisplay:10.37,2013-01-08 11:10:00,
2013-01-08 06:11:00,20.2,15.0,30.30,ESE,107,0.0,0.0,80,0.00,,SCT,0.00,WeatherDisplay:10.37,2013-01-08 11:11:00,
2013-01-08 06:13:00,20.2,15.0,30.30,ESE,107,0.0,0.0,80,0.00,,SCT,0.00,WeatherDisplay:10.37,2013-01-08 11:13:00,
2013-01-08 06:15:00,20.2,15.0,30.30,ESE,107,0.0,0.0,80,0.00,,SCT,0.00,WeatherDisplay:10.37,2013-01-08 11:15:00,
2013-01-08 06:18:00,20.2,15.0,30.30,ESE,107,0.0,0.0,80,0.00,,SCT,0.00,WeatherDisplay:10.37,2013-01-08 11:18:00,
2013-01-08 06:21:00,20.2,15.0,30.31,ESE,107,0.0,0.0,80,0.00,,SCT,0.00,WeatherDisplay:10.37,2013-01-08 11:21:00,
2013-01-08 06:22:00,20.2,15.3,30.31,ESE,107,0.0,0.0,81,0.00,,SCT,0.00,WeatherDisplay:10.37,2013-01-08 11:22:00,
2013-01-08 06:23:00,20.2,15.0,30.31,ESE,107,0.0,0.0,80,0.00,,SCT,0.00,WeatherDisplay:10.37,2013-01-08 11:23:00,
2013-01-08 06:27:00,20.2,15.0,30.31,ESE,107,0.0,0.0,80,0.00,,SCT,0.00,WeatherDisplay:10.37,2013-01-08 11:27:00,
2013-01-08 06:28:00,20.2,15.0,30.31,ESE,107,0.0,0.0,80,0.00,,SCT,0.00,WeatherDisplay:10.37,2013-01-08 11:28:00,
2013-01-08 06:29:00,20.2,15.0,30.31,ESE,107,0.0,0.0,80,0.00,,SCT,0.00,WeatherDisplay:10.37,2013-01-08 11:29:00,
2013-01-08 06:31:00,20.2,15.0,30.31,ESE,107,0.0,0.0,80,0.00,,SCT,0.00,WeatherDisplay:10.37,2013-01-08 11:31:00,
2013-01-08 06:33:00,20.2,15.0,30.31,ESE,107,0.0,0.0,80,0.00,,SCT,0.00,WeatherDisplay:10.37,2013-01-08 11:33:00,
2013-01-08 06:34:00,20.2,15.0,30.31,ESE,107,0.0,0.0,80,0.00,,SCT,0.00,WeatherDisplay:10.37,2013-01-08 11:34:00,
2013-01-08 06:35:00,20.2,15.0,30.31,ESE,107,0.0,0.0,80,0.00,,SCT,0.00,WeatherDisplay:10.37,2013-01-08 11:35:00,
2013-01-08 06:36:00,20.0,14.8,30.31,ESE,107,0.0,0.0,80,0.00,,SCT,0.00,WeatherDisplay:10.37,2013-01-08 11:36:00,
2013-01-08 06:38:00,20.0,14.8,30.31,ESE,107,0.0,0.0,80,0.00,,SCT,0.00,WeatherDisplay:10.37,2013-01-08 11:38:00,
2013-01-08 06:39:00,20.0,14.8,30.31,ESE,107,0.0,0.0,80,0.00,,SCT,0.00,WeatherDisplay:10.37,2013-01-08 11:39:00,
2013-01-08 06:43:00,20.0,14.8,30.31,ESE,107,0.0,0.0,80,0.00,,SCT,0.00,WeatherDisplay:10.37,2013-01-08 11:43:00,
2013-01-08 06:44:00,20.0,14.8,30.31,ESE,107,0.0,0.0,80,0.00,,SCT,0.00,WeatherDisplay:10.37,2013-01-08 11:44:00,
2013-01-08 06:45:00,20.0,14.8,30.31,ESE,107,0.0,0.0,80,0.00,,SCT,0.00,WeatherDisplay:10.37,2013-01-08 11:45:00,
2013-01-08 06:50:00,20.0,14.8,30.31,ESE,107,0.0,0.0,80,0.00,,SCT,0.00,WeatherDisplay:10.37,2013-01-08 11:50:00,
2013-01-08 06:51:00,20.0,14.8,30.31,ESE,107,0.0,0.0,80,0.00,,SCT,0.00,WeatherDisplay:10.37,2013-01-08 11:51:00,
2013-01-08 06:55:00,20.0,14.8,30.31,ESE,107,0.0,0.0,80,0.00,,SCT,0.00,WeatherDisplay:10.37,2013-01-08 11:55:00,
2013-01-08 07:00:00,20.0,14.8,30.31,ESE,107,0.0,0.0,80,0.00,,SCT,0.00,WeatherDisplay:10.37,2013-01-08 12:00:00,
2013-01-08 07:01:00,20.0,15.1,30.31,ESE,107,0.0,0.0,81,0.00,,SCT,0.00,WeatherDisplay:10.37,2013-01-08 12:01:00,
2013-01-08 07:02:00,20.0,15.1,30.31,ESE,107,0.0,0.0,81,0.00,,SCT,0.00,WeatherDisplay:10.37,2013-01-08 12:02:00,
2013-01-08 07:05:00,20.0,15.1,30.32,ESE,107,0.0,0.0,81,0.00,CLR,SCT,0.00,WeatherDisplay:10.37,2013-01-08 12:05:00,
2013-01-08 07:07:00,20.0,15.1,30.32,ESE,107,0.0,0.0,81,0.00,CLR,SCT,0.00,WeatherDisplay:10.37,2013-01-08 12:07:00,
2013-01-08 07:08:00,20.0,15.1,30.32,ESE,107,0.0,0.0,81,0.00,CLR,SCT,0.00,WeatherDisplay:10.37,2013-01-08 12:08:00,
2013-01-08 07:11:00,19.9,15.0,30.32,ESE,107,0.0,0.0,81,0.00,CLR,SCT,0.00,WeatherDisplay:10.37,2013-01-08 12:11:00,
2013-01-08 07:14:00,20.0,15.1,30.32,ESE,107,0.0,0.0,81,0.00,CLR,SCT,0.00,WeatherDisplay:10.37,2013-01-08 12:14:00,
2013-01-08 07:15:00,20.0,15.1,30.32,ESE,107,0.0,0.0,81,0.00,CLR,SCT,0.00,WeatherDisplay:10.37,2013-01-08 12:15:00,
2013-01-08 07:19:00,20.2,15.3,30.32,ESE,107,0.0,0.0,81,0.00,CLR,SCT,0.00,WeatherDisplay:10.37,2013-01-08 12:19:00,
2013-01-08 07:23:00,20.5,15.6,30.31,ESE,107,0.0,0.0,81,0.00,CLR,SCT,0.00,WeatherDisplay:10.37,2013-01-08 12:23:00,
2013-01-08 07:24:00,20.5,15.6,30.31,ESE,107,0.0,0.0,81,0.00,CLR,SCT,0.00,WeatherDisplay:10.37,2013-01-08 12:24:00,
2013-01-08 07:26:00,20.5,15.6,30.31,ESE,107,0.0,0.0,81,0.00,CLR,SCT,0.00,WeatherDisplay:10.37,2013-01-08 12:26:00,
2013-01-08 07:28:00,20.5,15.6,30.31,ESE,107,0.0,0.0,81,0.00,CLR,SCT,0.00,WeatherDisplay:10.37,2013-01-08 12:28:00,
2013-01-08 07:31:00,20.5,15.6,30.31,ESE,107,0.0,0.0,81,0.00,CLR,SCT,0.00,WeatherDisplay:10.37,2013-01-08 12:31:00,
2013-01-08 07:32:00,20.5,15.6,30.31,ESE,107,0.0,0.0,81,0.00,CLR,SCT,0.00,WeatherDisplay:10.37,2013-01-08 12:32:00,
2013-01-08 07:36:00,20.5,15.6,30.32,ESE,107,0.0,0.0,81,0.00,CLR,SCT,0.00,WeatherDisplay:10.37,2013-01-08 12:36:00,
2013-01-08 07:38:00,20.5,15.6,30.32,ESE,107,0.0,0.0,81,0.00,CLR,SCT,0.00,WeatherDisplay:10.37,2013-01-08 12:38:00,
2013-01-08 07:41:00,20.5,15.6,30.32,ESE,107,0.0,0.0,81,0.00,CLR,SCT,0.00,WeatherDisplay:10.37,2013-01-08 12:41:00,
2013-01-08 07:43:00,20.5,15.6,30.33,ESE,107,0.0,0.0,81,0.00,CLR,SCT,0.00,WeatherDisplay:10.37,2013-01-08 12:43:00,
2013-01-08 07:44:00,20.5,15.6,30.33,ESE,107,0.0,0.0,81,0.00,CLR,SCT,0.00,WeatherDisplay:10.37,2013-01-08 12:44:00,
2013-01-08 07:46:00,20.5,15.6,30.33,ESE,107,0.0,0.0,81,0.00,CLR,SCT,0.00,WeatherDisplay:10.37,2013-01-08 12:46:00,
2013-01-08 07:48:00,20.5,15.6,30.33,ESE,107,0.0,0.0,81,0.00,CLR,SCT,0.00,WeatherDisplay:10.37,2013-01-08 12:48:00,
2013-01-08 07:49:00,20.6,15.7,30.33,ESE,107,0.0,0.0,81,0.00,CLR,SCT,0.00,WeatherDisplay:10.37,2013-01-08 12:49:00,
2013-01-08 07:51:00,20.6,15.7,30.33,ESE,107,0.0,0.0,81,0.00,CLR,SCT,0.00,WeatherDisplay:10.37,2013-01-08 12:51:00,
2013-01-08 07:55:00,20.6,15.7,30.34,ESE,107,0.0,0.0,81,0.00,CLR,SCT,0.00,WeatherDisplay:10.37,2013-01-08 12:55:00,
2013-01-08 08:00:00,20.8,15.9,30.33,ESE,107,0.0,0.0,81,0.00,CLR,SCT,0.00,WeatherDisplay:10.37,2013-01-08 13:00:00,
2013-01-08 08:02:00,20.8,15.9,30.34,ESE,107,0.0,0.0,81,0.00,CLR,SCT,0.00,WeatherDisplay:10.37,2013-01-08 13:02:00,
2013-01-08 08:07:00,21.0,16.1,30.35,ESE,107,0.0,0.0,81,0.00,CLR,SCT,0.00,WeatherDisplay:10.37,2013-01-08 13:07:00,
2013-01-08 08:09:00,21.1,16.2,30.35,ESE,107,0.0,0.0,81,0.00,CLR,SCT,0.00,WeatherDisplay:10.37,2013-01-08 13:09:00,
2013-01-08 08:11:00,21.1,16.2,30.35,ESE,107,0.0,0.0,81,0.00,CLR,SCT,0.00,WeatherDisplay:10.37,2013-01-08 13:11:00,
2013-01-08 08:12:00,21.1,16.2,30.36,ESE,107,0.0,0.0,81,0.00,CLR,SCT,0.00,WeatherDisplay:10.37,2013-01-08 13:12:00,
2013-01-08 08:13:00,21.3,16.4,30.36,ESE,107,0.0,0.0,81,0.00,CLR,SCT,0.00,WeatherDisplay:10.37,2013-01-08 13:13:00,
2013-01-08 08:14:00,21.3,16.4,30.36,ESE,107,0.0,0.0,81,0.00,CLR,SCT,0.00,WeatherDisplay:10.37,2013-01-08 13:14:00,
2013-01-08 08:17:00,21.4,16.5,30.36,ESE,107,0.0,0.0,81,0.00,CLR,SCT,0.00,WeatherDisplay:10.37,2013-01-08 13:17:00,
2013-01-08 08:18:00,21.4,16.5,30.36,ESE,107,0.0,0.0,81,0.00,CLR,SCT,0.00,WeatherDisplay:10.37,2013-01-08 13:18:00,
2013-01-08 08:19:00,21.6,16.7,30.36,ESE,107,0.0,0.0,81,0.00,CLR,SCT,0.00,WeatherDisplay:10.37,2013-01-08 13:19:00,
2013-01-08 08:24:00,21.8,16.9,30.36,ESE,107,0.0,0.0,81,0.00,CLR,SCT,0.00,WeatherDisplay:10.37,2013-01-08 13:24:00,
2013-01-08 08:25:00,21.9,17.0,30.36,ESE,107,0.0,0.0,81,0.00,CLR,SCT,0.00,WeatherDisplay:10.37,2013-01-08 13:25:00,
2013-01-08 08:29:00,22.1,17.2,30.37,ESE,107,0.0,0.0,81,0.00,CLR,SCT,0.00,WeatherDisplay:10.37,2013-01-08 13:29:00,
2013-01-08 08:31:00,22.2,17.3,30.37,ESE,107,0.0,0.0,81,0.00,CLR,SCT,0.00,WeatherDisplay:10.37,2013-01-08 13:31:00,
2013-01-08 08:35:00,22.4,17.5,30.37,ESE,107,0.0,0.0,81,0.00,CLR,SCT,0.00,WeatherDisplay:10.37,2013-01-08 13:35:00,
2013-01-08 08:36:00,22.4,17.5,30.37,ESE,107,0.0,0.0,81,0.00,CLR,SCT,0.00,WeatherDisplay:10.37,2013-01-08 13:36:00,
2013-01-08 08:40:00,22.9,18.2,30.36,ESE,107,0.0,0.0,82,0.00,CLR,SCT,0.00,WeatherDisplay:10.37,2013-01-08 13:40:00,
2013-01-08 08:41:00,22.9,18.2,30.37,ESE,107,0.0,0.0,82,0.00,CLR,SCT,0.00,WeatherDisplay:10.37,2013-01-08 13:41:00,
2013-01-08 08:45:00,23.3,18.6,30.37,ESE,107,0.0,0.0,82,0.00,CLR,SCT,0.00,WeatherDisplay:10.37,2013-01-08 13:45:00,
2013-01-08 08:46:00,23.5,18.8,30.37,ESE,107,0.0,0.0,82,0.00,CLR,SCT,0.00,WeatherDisplay:10.37,2013-01-08 13:46:00,
2013-01-08 08:47:00,23.5,18.8,30.37,ESE,107,0.0,0.0,82,0.00,CLR,SCT,0.00,WeatherDisplay:10.37,2013-01-08 13:47:00,
2013-01-08 08:51:00,23.9,19.2,30.37,ESE,107,0.0,0.0,82,0.00,CLR,SCT,0.00,WeatherDisplay:10.37,2013-01-08 13:51:00,
2013-01-08 08:52:00,23.9,19.5,30.37,ESE,107,0.0,0.0,83,0.00,CLR,SCT,0.00,WeatherDisplay:10.37,2013-01-08 13:52:00,
2013-01-08 08:53:00,24.1,19.7,30.37,ESE,107,0.0,0.0,83,0.00,CLR,SCT,0.00,WeatherDisplay:10.37,2013-01-08 13:53:00,
2013-01-08 08:58:00,24.7,20.3,30.37,ESE,107,0.0,0.0,83,0.00,CLR,SCT,0.00,WeatherDisplay:10.37,2013-01-08 13:58:00,
2013-01-08 08:59:00,24.7,20.3,30.37,ESE,107,0.0,0.0,83,0.00,CLR,SCT,0.00,WeatherDisplay:10.37,2013-01-08 13:59:00,
2013-01-08 09:01:00,25.0,20.6,30.37,ESE,107,0.0,0.0,83,0.00,CLR,SCT,0.00,WeatherDisplay:10.37,2013-01-08 14:01:00,
2013-01-08 09:03:00,25.3,20.9,30.37,ESE,107,0.0,0.0,83,0.00,CLR,SCT,0.00,WeatherDisplay:10.37,2013-01-08 14:03:00,
2013-01-08 09:04:00,25.4,21.0,30.37,ESE,107,0.0,0.0,83,0.00,CLR,SCT,0.00,WeatherDisplay:10.37,2013-01-08 14:04:00,
2013-01-08 09:06:00,25.6,21.2,30.38,ESE,107,0.0,0.0,83,0.00,CLR,SCT,0.00,WeatherDisplay:10.37,2013-01-08 14:06:00,
2013-01-08 09:08:00,25.8,21.3,30.38,ESE,107,0.0,0.0,83,0.00,CLR,SCT,0.00,WeatherDisplay:10.37,2013-01-08 14:08:00,
2013-01-08 09:09:00,26.0,21.5,30.38,ESE,107,0.0,0.0,83,0.00,CLR,SCT,0.00,WeatherDisplay:10.37,2013-01-08 14:09:00,
2013-01-08 09:13:00,26.4,21.9,30.38,ESE,107,0.0,0.0,83,0.00,CLR,SCT,0.00,WeatherDisplay:10.37,2013-01-08 14:13:00,
2013-01-08 09:14:00,26.6,22.1,30.38,ESE,107,0.0,0.0,83,0.00,CLR,SCT,0.00,WeatherDisplay:10.37,2013-01-08 14:14:00,
2013-01-08 09:15:00,26.6,22.1,30.39,ESE,107,0.0,0.0,83,0.00,CLR,SCT,0.00,WeatherDisplay:10.37,2013-01-08 14:15:00,
2013-01-08 09:16:00,26.7,22.2,30.39,ESE,107,0.0,0.0,83,0.00,CLR,SCT,0.00,WeatherDisplay:10.37,2013-01-08 14:16:00,
2013-01-08 09:19:00,27.0,22.5,30.39,ESE,107,0.0,0.0,83,0.00,CLR,SCT,0.00,WeatherDisplay:10.37,2013-01-08 14:19:00,
2013-01-08 09:21:00,27.3,23.1,30.39,ESE,107,0.0,0.0,84,0.00,CLR,SCT,0.00,WeatherDisplay:10.37,2013-01-08 14:21:00,
2013-01-08 09:24:00,27.6,23.4,30.39,ESE,107,0.0,0.0,84,0.00,CLR,SCT,0.00,WeatherDisplay:10.37,2013-01-08 14:24:00,
2013-01-08 09:25:00,27.8,23.6,30.38,ESE,107,0.0,0.0,84,0.00,CLR,SCT,0.00,WeatherDisplay:10.37,2013-01-08 14:25:00,
2013-01-08 09:26:00,27.9,23.7,30.38,ESE,107,0.0,0.0,84,0.00,CLR,SCT,0.00,WeatherDisplay:10.37,2013-01-08 14:26:00,
2013-01-08 09:28:00,28.2,24.0,30.39,ESE,107,0.0,0.0,84,0.00,CLR,SCT,0.00,WeatherDisplay:10.37,2013-01-08 14:28:00,
2013-01-08 09:32:00,28.8,24.6,30.39,ESE,107,0.0,0.0,84,0.00,CLR,SCT,0.00,WeatherDisplay:10.37,2013-01-08 14:32:00,
2013-01-08 09:34:00,29.0,24.8,30.39,ESE,107,0.0,0.0,84,0.00,CLR,SCT,0.00,WeatherDisplay:10.37,2013-01-08 14:34:00,
2013-01-08 09:36:00,29.3,25.1,30.39,ESE,107,0.0,0.0,84,0.00,CLR,SCT,0.00,WeatherDisplay:10.37,2013-01-08 14:36:00,
2013-01-08 09:37:00,29.4,25.2,30.39,ESE,107,0.0,0.0,84,0.00,CLR,SCT,0.00,WeatherDisplay:10.37,2013-01-08 14:37:00,
2013-01-08 09:38:00,29.5,25.3,30.39,ESE,107,0.0,0.0,84,0.00,CLR,SCT,0.00,WeatherDisplay:10.37,2013-01-08 14:38:00,
2013-01-08 09:41:00,30.0,25.8,30.38,ESE,107,0.0,0.0,84,0.00,CLR,SCT,0.00,WeatherDisplay:10.37,2013-01-08 14:41:00,
2013-01-08 09:43:00,30.1,25.8,30.39,ESE,107,0.0,0.0,84,0.00,CLR,SCT,0.00,WeatherDisplay:10.37,2013-01-08 14:43:00,
2013-01-08 09:47:00,30.7,26.4,30.39,ESE,107,0.0,0.0,84,0.00,CLR,SCT,0.00,WeatherDisplay:10.37,2013-01-08 14:47:00,
2013-01-08 09:49:00,30.9,26.6,30.39,ESE,107,0.0,0.0,84,0.00,CLR,SCT,0.00,WeatherDisplay:10.37,2013-01-08 14:49:00,
2013-01-08 09:51:00,31.2,26.9,30.39,ESE,107,0.0,0.0,84,0.00,CLR,SCT,0.00,WeatherDisplay:10.37,2013-01-08 14:51:00,
2013-01-08 09:53:00,31.3,27.0,30.39,ESE,107,0.0,0.0,84,0.00,CLR,SCT,0.00,WeatherDisplay:10.37,2013-01-08 14:53:00,
2013-01-08 09:55:00,31.5,27.2,30.39,ESE,107,0.0,0.0,84,0.00,CLR,SCT,0.00,WeatherDisplay:10.37,2013-01-08 14:55:00,
2013-01-08 09:56:00,31.6,27.3,30.39,ESE,107,0.0,0.0,84,0.00,CLR,SCT,0.00,WeatherDisplay:10.37,2013-01-08 14:56:00,
2013-01-08 09:57:00,31.8,27.5,30.39,ESE,107,0.0,0.0,84,0.00,CLR,SCT,0.00,WeatherDisplay:10.37,2013-01-08 14:57:00,
2013-01-08 10:00:00,32.1,27.8,30.39,ESE,107,0.0,0.0,84,0.00,CLR,SCT,0.00,WeatherDisplay:10.37,2013-01-08 15:00:00,
2013-01-08 10:01:00,32.2,27.9,30.39,ESE,107,0.0,0.0,84,0.00,CLR,SCT,0.00,WeatherDisplay:10.37,2013-01-08 15:01:00,
2013-01-08 10:02:00,32.4,28.1,30.39,ESE,107,0.0,0.0,84,0.00,CLR,SCT,0.00,WeatherDisplay:10.37,2013-01-08 15:02:00,
2013-01-08 10:05:00,32.7,28.4,30.40,ESE,107,0.0,0.0,84,0.00,CLR,SCT,0.00,WeatherDisplay:10.37,2013-01-08 15:05:00,
2013-01-08 10:06:00,32.8,28.5,30.39,ESE,107,0.0,0.0,84,0.00,CLR,SCT,0.00,WeatherDisplay:10.37,2013-01-08 15:06:00,
2013-01-08 10:07:00,32.9,28.6,30.40,ESE,107,0.0,0.0,84,0.00,CLR,SCT,0.00,WeatherDisplay:10.37,2013-01-08 15:07:00,
2013-01-08 10:08:00,33.1,28.8,30.40,ESE,107,0.0,0.0,84,0.00,CLR,SCT,0.00,WeatherDisplay:10.37,2013-01-08 15:08:00,
2013-01-08 10:12:00,33.5,29.2,30.39,ESE,107,0.0,0.0,84,0.00,CLR,SCT,0.00,WeatherDisplay:10.37,2013-01-08 15:12:00,
2013-01-08 10:13:00,33.5,29.2,30.39,ESE,107,0.0,0.0,84,0.00,CLR,SCT,0.00,WeatherDisplay:10.37,2013-01-08 15:13:00,
2013-01-08 10:16:00,34.0,29.7,30.39,ESE,107,0.0,0.0,84,0.00,CLR,SCT,0.00,WeatherDisplay:10.37,2013-01-08 15:16:00,
2013-01-08 10:21:00,34.4,29.8,30.38,ESE,107,0.0,0.0,83,0.00,CLR,SCT,0.00,WeatherDisplay:10.37,2013-01-08 15:21:00,
2013-01-08 10:22:00,34.4,29.8,30.38,ESE,107,0.0,0.0,83,0.00,CLR,SCT,0.00,WeatherDisplay:10.37,2013-01-08 15:22:00,
2013-01-08 10:24:00,34.6,30.0,30.38,ESE,107,0.0,0.0,83,0.00,CLR,SCT,0.00,WeatherDisplay:10.37,2013-01-08 15:24:00,
2013-01-08 10:25:00,34.7,29.8,30.38,ESE,107,0.0,0.0,82,0.00,CLR,SCT,0.00,WeatherDisplay:10.37,2013-01-08 15:25:00,
2013-01-08 10:28:00,34.9,30.0,30.38,ESE,107,0.0,0.0,82,0.00,CLR,SCT,0.00,WeatherDisplay:10.37,2013-01-08 15:28:00,
2013-01-08 10:29:00,34.9,30.0,30.38,ESE,107,0.0,0.0,82,0.00,CLR,SCT,0.00,WeatherDisplay:10.37,2013-01-08 15:29:00,
2013-01-08 10:32:00,35.0,30.1,30.38,ESE,107,0.0,0.0,82,0.00,CLR,SCT,0.00,WeatherDisplay:10.37,2013-01-08 15:32:00,
2013-01-08 10:34:00,35.2,30.3,30.38,ESE,107,0.0,0.0,82,0.00,CLR,SCT,0.00,WeatherDisplay:10.37,2013-01-08 15:34:00,
2013-01-08 10:35:00,35.2,30.3,30.38,ESE,107,0.0,0.0,82,0.00,CLR,SCT,0.00,WeatherDisplay:10.37,2013-01-08 15:35:00,
2013-01-08 10:37:00,35.3,30.4,30.38,ESE,107,0.0,0.0,82,0.00,CLR,SCT,0.00,WeatherDisplay:10.37,2013-01-08 15:37:00,
2013-01-08 10:39:00,35.5,30.5,30.38,ESE,107,0.0,0.0,82,0.00,CLR,SCT,0.00,WeatherDisplay:10.37,2013-01-08 15:39:00,
2013-01-08 10:40:00,35.6,30.6,30.38,ESE,107,0.0,0.0,82,0.00,CLR,SCT,0.00,WeatherDisplay:10.37,2013-01-08 15:40:00,
2013-01-08 10:44:00,35.9,30.6,30.37,ESE,107,0.0,0.0,81,0.00,CLR,SCT,0.00,WeatherDisplay:10.37,2013-01-08 15:44:00,
2013-01-08 10:45:00,36.0,30.7,30.37,ESE,107,0.0,0.0,81,0.00,CLR,SCT,0.00,WeatherDisplay:10.37,2013-01-08 15:45:00,
2013-01-08 10:46:00,36.0,30.7,30.37,ESE,107,0.0,0.0,81,0.00,CLR,SCT,0.00,WeatherDisplay:10.37,2013-01-08 15:46:00,
2013-01-08 10:49:00,36.3,31.0,30.37,ESE,107,0.0,0.0,81,0.00,CLR,SCT,0.00,WeatherDisplay:10.37,2013-01-08 15:49:00,
2013-01-08 10:50:00,36.3,31.0,30.37,ESE,107,0.0,0.0,81,0.00,CLR,SCT,0.00,WeatherDisplay:10.37,2013-01-08 15:50:00,
2013-01-08 10:53:00,36.6,31.3,30.37,ESE,107,0.0,0.0,81,0.00,CLR,SCT,0.00,WeatherDisplay:10.37,2013-01-08 15:53:00,
2013-01-08 10:57:00,36.9,31.6,30.37,ESE,107,0.0,0.0,81,0.00,CLR,SCT,0.00,WeatherDisplay:10.37,2013-01-08 15:57:00,
2013-01-08 10:58:00,37.0,31.7,30.37,ESE,107,0.0,0.0,81,0.00,CLR,SCT,0.00,WeatherDisplay:10.37,2013-01-08 15:58:00,
2013-01-08 11:02:00,37.3,32.0,30.37,ESE,107,0.0,0.0,81,0.00,CLR,SCT,0.00,WeatherDisplay:10.37,2013-01-08 16:02:00,
2013-01-08 11:06:00,37.6,32.3,30.37,ESE,107,0.0,0.0,81,0.00,CLR,SCT,0.00,WeatherDisplay:10.37,2013-01-08 16:06:00,
2013-01-08 11:07:00,37.8,32.5,30.37,ESE,107,0.0,0.0,81,0.00,CLR,SCT,0.00,WeatherDisplay:10.37,2013-01-08 16:07:00,
2013-01-08 11:10:00,37.9,32.6,30.37,ESE,107,0.0,0.0,81,0.00,CLR,SCT,0.00,WeatherDisplay:10.37,2013-01-08 16:10:00,
2013-01-08 11:13:00,38.0,32.4,30.37,ESE,107,0.0,0.0,80,0.00,CLR,SCT,0.00,WeatherDisplay:10.37,2013-01-08 16:13:00,
2013-01-08 11:16:00,38.2,32.6,30.37,ESE,107,0.0,0.0,80,0.00,CLR,SCT,0.00,WeatherDisplay:10.37,2013-01-08 16:16:00,
2013-01-08 11:17:00,38.2,32.6,30.37,ESE,107,0.0,0.0,80,0.00,CLR,SCT,0.00,WeatherDisplay:10.37,2013-01-08 16:17:00,
2013-01-08 11:18:00,38.3,32.7,30.37,ESE,107,0.0,0.0,80,0.00,CLR,SCT,0.00,WeatherDisplay:10.37,2013-01-08 16:18:00,
2013-01-08 11:22:00,38.6,33.0,30.37,ESE,107,0.0,0.0,80,0.00,CLR,SCT,0.00,WeatherDisplay:10.37,2013-01-08 16:22:00,
2013-01-08 11:25:00,38.8,33.2,30.37,ESE,107,0.0,0.0,80,0.00,CLR,SCT,0.00,WeatherDisplay:10.37,2013-01-08 16:25:00,
2013-01-08 11:27:00,39.1,33.5,30.37,ESE,107,0.0,0.0,80,0.00,CLR,SCT,0.00,WeatherDisplay:10.37,2013-01-08 16:27:00,
2013-01-08 11:30:00,39.3,33.6,30.37,ESE,107,0.0,0.0,80,0.00,CLR,SCT,0.00,WeatherDisplay:10.37,2013-01-08 16:30:00,
2013-01-08 11:32:00,39.5,33.8,30.37,ESE,107,0.0,0.0,80,0.00,CLR,SCT,0.00,WeatherDisplay:10.37,2013-01-08 16:32:00,
2013-01-08 11:37:00,40.1,34.4,30.36,ESE,107,0.0,0.0,80,0.00,CLR,SCT,0.00,WeatherDisplay:10.37,2013-01-08 16:37:00,
2013-01-08 11:38:00,40.1,34.1,30.36,ESE,107,0.0,0.0,79,0.00,CLR,SCT,0.00,WeatherDisplay:10.37,2013-01-08 16:38:00,
2013-01-08 11:41:00,40.3,34.3,30.36,ESE,107,0.0,0.0,79,0.00,CLR,SCT,0.00,WeatherDisplay:10.37,2013-01-08 16:41:00,
2013-01-08 11:43:00,40.5,34.5,30.36,ESE,107,0.0,0.0,79,0.00,CLR,SCT,0.00,WeatherDisplay:10.37,2013-01-08 16:43:00,
2013-01-08 11:44:00,40.6,34.6,30.36,ESE,107,0.0,0.0,79,0.00,CLR,SCT,0.00,WeatherDisplay:10.37,2013-01-08 16:44:00,
2013-01-08 11:45:00,40.6,34.6,30.36,ESE,107,0.0,0.0,79,0.00,CLR,SCT,0.00,WeatherDisplay:10.37,2013-01-08 16:45:00,
2013-01-08 11:48:00,41.1,35.1,30.36,ESE,107,0.0,0.0,79,0.00,CLR,SCT,0.00,WeatherDisplay:10.37,2013-01-08 16:48:00,
2013-01-08 11:52:00,41.5,35.5,30.35,ESE,107,0.0,0.0,79,0.00,CLR,SCT,0.00,WeatherDisplay:10.37,2013-01-08 16:52:00,
2013-01-08 11:53:00,41.6,35.6,30.35,ESE,107,0.0,0.0,79,0.00,CLR,SCT,0.00,WeatherDisplay:10.37,2013-01-08 16:53:00,
2013-01-08 11:58:00,41.9,35.2,30.34,ESE,107,0.0,0.0,77,0.00,CLR,SCT,0.00,WeatherDisplay:10.37,2013-01-08 16:58:00,
2013-01-08 12:00:00,42.1,35.4,30.34,ESE,107,0.0,0.0,77,0.00,CLR,SCT,0.00,WeatherDisplay:10.37,2013-01-08 17:00:00,
2013-01-08 12:03:00,42.2,35.5,30.33,ESE,107,0.0,0.0,77,0.00,CLR,SCT,0.00,WeatherDisplay:10.37,2013-01-08 17:03:00,
2013-01-08 12:05:00,42.3,35.6,30.33,ESE,107,0.0,0.0,77,0.00,CLR,SCT,0.00,WeatherDisplay:10.37,2013-01-08 17:05:00,
2013-01-08 12:06:00,42.5,35.8,30.33,ESE,107,0.0,0.0,77,0.00,CLR,SCT,0.00,WeatherDisplay:10.37,2013-01-08 17:06:00,
2013-01-08 12:10:00,42.8,35.8,30.33,ESE,107,0.0,0.0,76,0.00,CLR,SCT,0.00,WeatherDisplay:10.37,2013-01-08 17:10:00,
2013-01-08 12:12:00,42.9,35.9,30.33,ESE,107,0.0,0.0,76,0.00,CLR,SCT,0.00,WeatherDisplay:10.37,2013-01-08 17:12:00,
2013-01-08 12:15:00,43.1,36.0,30.33,ESE,107,0.0,0.0,76,0.00,CLR,SCT,0.00,WeatherDisplay:10.37,2013-01-08 17:15:00,
2013-01-08 12:16:00,43.2,36.1,30.33,ESE,107,0.0,0.0,76,0.00,CLR,SCT,0.00,WeatherDisplay:10.37,2013-01-08 17:16:00,
2013-01-08 12:18:00,43.3,36.2,30.33,ESE,107,0.0,0.0,76,0.00,CLR,SCT,0.00,WeatherDisplay:10.37,2013-01-08 17:18:00,
2013-01-08 12:20:00,43.6,36.5,30.33,ESE,107,0.0,0.0,76,0.00,CLR,SCT,0.00,WeatherDisplay:10.37,2013-01-08 17:20:00,
2013-01-08 12:23:00,43.9,36.5,30.32,ESE,107,0.0,0.0,75,0.00,CLR,SCT,0.00,WeatherDisplay:10.37,2013-01-08 17:23:00,
2013-01-08 12:24:00,43.9,36.1,30.32,ESE,107,0.0,0.0,74,0.00,CLR,SCT,0.00,WeatherDisplay:10.37,2013-01-08 17:24:00,
2013-01-08 12:25:00,44.1,36.3,30.32,ESE,107,0.0,0.0,74,0.00,CLR,SCT,0.00,WeatherDisplay:10.37,2013-01-08 17:25:00,
2013-01-08 12:30:00,44.5,36.4,30.31,ESE,107,1.0,0.0,73,0.00,CLR,SCT,0.00,WeatherDisplay:10.37,2013-01-08 17:30:00,
2013-01-08 12:31:00,44.6,36.5,30.31,East,80,4.6,4.6,73,0.00,CLR,SCT,0.00,WeatherDisplay:10.37,2013-01-08 17:31:00,
2013-01-08 12:33:00,44.8,36.7,30.31,East,80,0.0,0.0,73,0.00,CLR,SCT,0.00,WeatherDisplay:10.37,2013-01-08 17:33:00,
2013-01-08 12:37:00,44.9,36.4,30.31,East,80,1.1,1.1,72,0.00,CLR,SCT,0.00,WeatherDisplay:10.37,2013-01-08 17:37:00,
2013-01-08 12:38:00,45.1,36.6,30.31,East,80,2.3,2.3,72,0.00,CLR,SCT,0.00,WeatherDisplay:10.37,2013-01-08 17:38:00,
2013-01-08 12:40:00,45.1,36.6,30.31,East,80,1.1,1.1,72,0.00,CLR,SCT,0.00,WeatherDisplay:10.37,2013-01-08 17:40:00,
2013-01-08 12:42:00,45.2,36.7,30.31,East,80,1.1,1.1,72,0.00,CLR,SCT,0.00,WeatherDisplay:10.37,2013-01-08 17:42:00,
2013-01-08 12:43:00,45.4,36.5,30.31,East,80,2.0,0.0,71,0.00,CLR,SCT,0.00,WeatherDisplay:10.37,2013-01-08 17:43:00,
2013-01-08 12:45:00,45.4,36.5,30.31,East,80,2.3,2.3,71,0.00,CLR,SCT,0.00,WeatherDisplay:10.37,2013-01-08 17:45:00,
2013-01-08 12:47:00,45.4,36.5,30.31,East,80,0.0,0.0,71,0.00,CLR,SCT,0.00,WeatherDisplay:10.37,2013-01-08 17:47:00,
2013-01-08 12:48:00,45.5,36.6,30.31,East,80,3.5,3.5,71,0.00,CLR,SCT,0.00,WeatherDisplay:10.37,2013-01-08 17:48:00,
2013-01-08 12:51:00,45.7,36.5,30.30,East,80,2.3,2.3,70,0.00,CLR,SCT,0.00,WeatherDisplay:10.37,2013-01-08 17:51:00,
2013-01-08 12:54:00,45.8,36.6,30.30,East,80,1.1,1.1,70,0.00,CLR,SCT,0.00,WeatherDisplay:10.37,2013-01-08 17:54:00,
2013-01-08 12:57:00,46.1,36.5,30.30,East,80,3.5,3.5,69,0.00,CLR,SCT,0.00,WeatherDisplay:10.37,2013-01-08 17:57:00,
2013-01-08 12:58:00,46.1,36.5,30.30,East,80,2.3,2.3,69,0.00,CLR,SCT,0.00,WeatherDisplay:10.37,2013-01-08 17:58:00,
2013-01-08 13:02:00,46.2,36.6,30.29,East,80,1.1,1.1,69,0.00,CLR,SCT,0.00,WeatherDisplay:10.37,2013-01-08 18:02:00,
2013-01-08 13:07:00,46.4,36.4,30.30,East,80,2.3,2.3,68,0.00,CLR,SCT,0.00,WeatherDisplay:10.37,2013-01-08 18:07:00,
2013-01-08 13:09:00,46.4,36.0,30.30,East,80,2.3,2.3,67,0.00,CLR,SCT,0.00,WeatherDisplay:10.37,2013-01-08 18:09:00,
2013-01-08 13:12:00,46.5,35.7,30.29,East,80,3.5,3.5,66,0.00,CLR,SCT,0.00,WeatherDisplay:10.37,2013-01-08 18:12:00,
2013-01-08 13:14:00,46.7,35.6,30.29,East,80,3.5,3.5,65,0.00,CLR,SCT,0.00,WeatherDisplay:10.37,2013-01-08 18:14:00,
2013-01-08 13:18:00,47.0,35.8,30.29,East,80,2.3,2.3,65,0.00,CLR,SCT,0.00,WeatherDisplay:10.37,2013-01-08 18:18:00,
2013-01-08 13:20:00,47.1,35.9,30.28,East,80,3.5,3.5,65,0.00,CLR,SCT,0.00,WeatherDisplay:10.37,2013-01-08 18:20:00,
2013-01-08 13:21:00,47.1,35.9,30.29,East,80,4.6,4.6,65,0.00,CLR,SCT,0.00,WeatherDisplay:10.37,2013-01-08 18:21:00,
2013-01-08 13:24:00,47.4,36.2,30.28,East,80,0.0,0.0,65,0.00,CLR,SCT,0.00,WeatherDisplay:10.37,2013-01-08 18:24:00,
2013-01-08 13:26:00,47.6,36.4,30.28,East,80,3.5,3.5,65,0.00,CLR,SCT,0.00,WeatherDisplay:10.37,2013-01-08 18:26:00,
2013-01-08 13:30:00,47.9,36.7,30.28,East,80,3.5,3.5,65,0.00,CLR,SCT,0.00,WeatherDisplay:10.37,2013-01-08 18:30:00,
2013-01-08 13:31:00,47.9,36.3,30.28,ENE,66,6.0,6.0,64,0.00,CLR,SCT,0.00,WeatherDisplay:10.37,2013-01-08 18:31:00,
2013-01-08 13:36:00,48.3,36.3,30.28,ENE,67,2.3,2.3,63,0.00,CLR,SCT,0.00,WeatherDisplay:10.37,2013-01-08 18:36:00,
2013-01-08 13:37:00,48.3,36.3,30.28,ENE,67,1.1,1.1,63,0.00,CLR,SCT,0.00,WeatherDisplay:10.37,2013-01-08 18:37:00,
2013-01-08 13:38:00,48.5,36.5,30.28,ENE,67,3.5,3.5,63,0.00,CLR,SCT,0.00,WeatherDisplay:10.37,2013-01-08 18:38:00,
2013-01-08 13:42:00,48.6,36.2,30.27,ENE,66,5.8,5.8,62,0.00,CLR,SCT,0.00,WeatherDisplay:10.37,2013-01-08 18:42:00,
2013-01-08 13:47:00,48.9,36.9,30.27,ENE,66,3.0,3.0,63,0.00,CLR,SCT,0.00,WeatherDisplay:10.37,2013-01-08 18:47:00,
2013-01-08 13:50:00,49.2,36.7,30.27,ENE,66,2.3,0.0,62,0.00,CLR,SCT,0.00,WeatherDisplay:10.37,2013-01-08 18:50:00,
2013-01-08 13:53:00,49.4,36.9,30.27,ENE,66,5.8,5.8,62,0.00,CLR,SCT,0.00,WeatherDisplay:10.37,2013-01-08 18:53:00,
2013-01-08 13:54:00,49.5,37.0,30.27,ENE,65,9.2,9.2,62,0.00,CLR,SCT,0.00,WeatherDisplay:10.37,2013-01-08 18:54:00,
2013-01-08 13:58:00,49.6,36.7,30.27,ENE,65,3.5,3.5,61,0.00,CLR,SCT,0.00,WeatherDisplay:10.37,2013-01-08 18:58:00,
2013-01-08 14:01:00,49.8,36.9,30.26,ENE,65,0.0,0.0,61,0.00,CLR,SCT,0.00,WeatherDisplay:10.37,2013-01-08 19:01:00,
2013-01-08 14:03:00,49.9,37.4,30.26,ENE,65,6.9,6.9,62,0.00,CLR,SCT,0.00,WeatherDisplay:10.37,2013-01-08 19:03:00,
2013-01-08 14:05:00,50.1,37.6,30.26,ENE,64,5.8,5.8,62,0.00,CLR,SCT,0.00,WeatherDisplay:10.37,2013-01-08 19:05:00,
2013-01-08 14:06:00,50.2,37.7,30.26,ENE,64,4.6,4.6,62,0.00,CLR,SCT,0.00,WeatherDisplay:10.37,2013-01-08 19:06:00,
2013-01-08 14:08:00,50.4,37.0,30.26,ENE,76,6.9,6.9,60,0.00,CLR,SCT,0.00,WeatherDisplay:10.37,2013-01-08 19:08:00,
2013-01-08 14:12:00,50.7,37.7,30.26,ENE,72,4.0,4.0,61,0.00,CLR,SCT,0.00,WeatherDisplay:10.37,2013-01-08 19:12:00,
2013-01-08 14:13:00,50.7,37.3,30.26,ENE,72,6.9,6.9,60,0.00,CLR,SCT,0.00,WeatherDisplay:10.37,2013-01-08 19:13:00,
2013-01-08 14:15:00,50.8,37.0,30.26,ENE,71,5.8,5.8,59,0.00,CLR,SCT,0.00,WeatherDisplay:10.37,2013-01-08 19:15:00,
2013-01-08 14:17:00,51.0,37.2,30.26,ENE,71,6.9,6.9,59,0.00,CLR,SCT,0.00,WeatherDisplay:10.37,2013-01-08 19:17:00,
2013-01-08 14:21:00,51.1,37.3,30.25,ENE,71,0.0,0.0,59,0.00,CLR,SCT,0.00,WeatherDisplay:10.37,2013-01-08 19:21:00,
2013-01-08 14:22:00,51.1,37.3,30.25,ENE,71,6.9,6.9,59,0.00,CLR,SCT,0.00,WeatherDisplay:10.37,2013-01-08 19:22:00,
2013-01-08 14:23:00,51.1,36.8,30.25,ENE,70,6.0,6.0,58,0.00,CLR,SCT,0.00,WeatherDisplay:10.37,2013-01-08 19:23:00,
2013-01-08 14:25:00,51.3,37.0,30.25,ENE,70,6.9,6.9,58,0.00,CLR,SCT,0.00,WeatherDisplay:10.37,2013-01-08 19:25:00,
2013-01-08 14:30:00,51.4,36.7,30.25,ENE,77,5.8,5.8,57,0.00,CLR,SCT,0.00,WeatherDisplay:10.37,2013-01-08 19:30:00,
2013-01-08 14:31:00,51.4,36.7,30.25,ENE,78,5.0,5.0,57,0.00,CLR,SCT,0.00,WeatherDisplay:10.37,2013-01-08 19:31:00,
2013-01-08 14:33:00,51.6,36.4,30.25,ENE,77,6.9,6.9,56,0.00,CLR,SCT,0.00,WeatherDisplay:10.37,2013-01-08 19:33:00,
2013-01-08 14:36:00,51.7,36.9,30.25,ENE,77,4.0,4.0,57,0.00,CLR,SCT,0.00,WeatherDisplay:10.37,2013-01-08 19:36:00,
2013-01-08 14:37:00,51.7,36.5,30.25,ENE,77,5.0,5.0,56,0.00,CLR,SCT,0.00,WeatherDisplay:10.37,2013-01-08 19:37:00,
2013-01-08 14:38:00,51.9,36.7,30.25,ENE,77,4.6,4.6,56,0.00,CLR,SCT,0.00,WeatherDisplay:10.37,2013-01-08 19:38:00,
2013-01-08 14:39:00,51.9,37.1,30.25,ENE,77,4.6,4.6,57,0.00,CLR,SCT,0.00,WeatherDisplay:10.37,2013-01-08 19:39:00,
2013-01-08 14:41:00,52.0,36.8,30.25,ENE,77,0.0,0.0,56,0.00,CLR,SCT,0.00,WeatherDisplay:10.37,2013-01-08 19:41:00,
2013-01-08 14:44:00,52.2,36.5,30.25,ENE,78,5.8,5.8,55,0.00,CLR,SCT,0.00,WeatherDisplay:10.37,2013-01-08 19:44:00,
2013-01-08 14:46:00,52.3,36.1,30.25,ENE,78,5.0,5.0,54,0.00,CLR,SCT,0.00,WeatherDisplay:10.37,2013-01-08 19:46:00,
2013-01-08 14:47:00,52.3,36.1,30.25,ENE,78,4.6,4.6,54,0.00,CLR,SCT,0.00,WeatherDisplay:10.37,2013-01-08 19:47:00,
2013-01-08 14:48:00,52.3,36.1,30.25,ENE,78,3.5,3.5,54,0.00,CLR,SCT,0.00,WeatherDisplay:10.37,2013-01-08 19:48:00,
2013-01-08 14:53:00,52.5,36.3,30.25,ENE,71,5.8,5.8,54,0.00,CLR,SCT,0.00,WeatherDisplay:10.37,2013-01-08 19:53:00,
2013-01-08 14:54:00,52.6,36.4,30.25,ENE,71,3.5,3.5,54,0.00,CLR,SCT,0.00,WeatherDisplay:10.37,2013-01-08 19:54:00,
2013-01-08 14:55:00,52.6,36.9,30.25,ENE,71,3.5,3.5,55,0.00,CLR,SCT,0.00,WeatherDisplay:10.37,2013-01-08 19:55:00,
2013-01-08 14:57:00,52.8,37.1,30.25,ENE,71,0.0,0.0,55,0.00,CLR,SCT,0.00,WeatherDisplay:10.37,2013-01-08 19:57:00,
2013-01-08 14:59:00,52.8,37.1,30.25,ENE,71,5.0,5.0,55,0.00,CLR,SCT,0.00,WeatherDisplay:10.37,2013-01-08 19:59:00,
2013-01-08 15:00:00,52.8,36.6,30.25,ENE,71,4.6,4.6,54,0.00,CLR,SCT,0.00,WeatherDisplay:10.37,2013-01-08 20:00:00,
2013-01-08 15:02:00,52.8,36.6,30.25,ENE,71,0.0,0.0,54,0.00,CLR,SCT,0.00,WeatherDisplay:10.37,2013-01-08 20:02:00,
2013-01-08 15:05:00,52.9,37.2,30.26,ENE,71,1.1,0.0,55,0.00,CLR,SCT,0.00,WeatherDisplay:10.37,2013-01-08 20:05:00,
2013-01-08 15:07:00,52.9,36.7,30.26,ENE,71,0.0,0.0,54,0.00,CLR,SCT,0.00,WeatherDisplay:10.37,2013-01-08 20:07:00,
2013-01-08 15:09:00,53.1,37.3,30.26,ENE,71,1.0,1.0,55,0.00,CLR,SCT,0.00,WeatherDisplay:10.37,2013-01-08 20:09:00,
2013-01-08 15:14:00,53.2,37.0,30.26,ENE,71,1.1,0.0,54,0.00,CLR,SCT,0.00,WeatherDisplay:10.37,2013-01-08 20:14:00,
2013-01-08 15:16:00,53.2,37.0,30.26,ENE,71,1.1,0.0,54,0.00,CLR,SCT,0.00,WeatherDisplay:10.37,2013-01-08 20:16:00,
2013-01-08 15:17:00,53.3,37.1,30.26,ENE,71,1.1,1.1,54,0.00,CLR,SCT,0.00,WeatherDisplay:10.37,2013-01-08 20:17:00,
2013-01-08 15:20:00,53.3,37.1,30.26,ENE,71,0.0,0.1,54,0.00,CLR,SCT,0.00,WeatherDisplay:10.37,2013-01-08 20:20:00,
2013-01-08 15:21:00,53.3,37.1,30.26,ENE,71,0.0,0.0,54,0.00,CLR,SCT,0.00,WeatherDisplay:10.37,2013-01-08 20:21:00,
2013-01-08 15:26:00,53.6,37.3,30.26,ENE,71,0.0,0.0,54,0.00,CLR,SCT,0.00,WeatherDisplay:10.37,2013-01-08 20:26:00,
2013-01-08 15:27:00,53.6,37.3,30.27,ENE,71,0.0,0.0,54,0.00,CLR,SCT,0.00,WeatherDisplay:10.37,2013-01-08 20:27:00,
2013-01-08 15:30:00,53.6,37.3,30.27,ENE,71,0.0,0.0,54,0.00,CLR,SCT,0.00,WeatherDisplay:10.37,2013-01-08 20:30:00,
2013-01-08 15:31:00,53.8,37.5,30.27,ENE,71,0.0,0.0,54,0.00,CLR,SCT,0.00,WeatherDisplay:10.37,2013-01-08 20:31:00,
2013-01-08 15:32:00,53.8,38.0,30.27,ENE,71,0.0,0.0,55,0.00,CLR,SCT,0.00,WeatherDisplay:10.37,2013-01-08 20:32:00,
2013-01-08 15:33:00,53.9,38.1,30.27,ENE,71,0.0,0.0,55,0.00,CLR,SCT,0.00,WeatherDisplay:10.37,2013-01-08 20:33:00,
2013-01-08 15:36:00,54.1,37.3,30.26,ENE,71,0.0,0.0,53,0.00,CLR,SCT,0.00,WeatherDisplay:10.37,2013-01-08 20:36:00,
2013-01-08 15:38:00,54.2,37.9,30.26,ENE,71,0.0,0.0,54,0.00,CLR,SCT,0.00,WeatherDisplay:10.37,2013-01-08 20:38:00,
2013-01-08 15:39:00,54.2,37.9,30.27,ENE,71,0.0,0.0,54,0.00,CLR,SCT,0.00,WeatherDisplay:10.37,2013-01-08 20:39:00,
2013-01-08 15:43:00,54.4,37.6,30.27,ENE,71,0.0,0.0,53,0.00,CLR,SCT,0.00,WeatherDisplay:10.37,2013-01-08 20:43:00,
2013-01-08 15:44:00,54.4,37.6,30.27,ENE,71,0.0,0.0,53,0.00,CLR,SCT,0.00,WeatherDisplay:10.37,2013-01-08 20:44:00,
2013-01-08 15:47:00,54.5,37.2,30.26,ENE,71,0.0,0.0,52,0.00,CLR,SCT,0.00,WeatherDisplay:10.37,2013-01-08 20:47:00,
2013-01-08 15:48:00,54.5,37.2,30.26,ENE,71,0.0,0.0,52,0.00,CLR,SCT,0.00,WeatherDisplay:10.37,2013-01-08 20:48:00,
2013-01-08 15:52:00,54.5,36.7,30.26,ENE,71,0.0,0.0,51,0.00,CLR,SCT,0.00,WeatherDisplay:10.37,2013-01-08 20:52:00,
2013-01-08 15:56:00,54.5,36.7,30.26,ENE,71,0.0,0.0,51,0.00,CLR,SCT,0.00,WeatherDisplay:10.37,2013-01-08 20:56:00,
2013-01-08 15:57:00,54.5,37.2,30.26,ENE,71,0.0,0.0,52,0.00,CLR,SCT,0.00,WeatherDisplay:10.37,2013-01-08 20:57:00,
2013-01-08 16:00:00,54.5,37.2,30.26,ENE,71,0.0,0.0,52,0.00,CLR,SCT,0.00,WeatherDisplay:10.37,2013-01-08 21:00:00,
2013-01-08 16:02:00,54.5,36.7,30.26,ENE,71,0.0,0.0,51,0.00,CLR,SCT,0.00,WeatherDisplay:10.37,2013-01-08 21:02:00,
2013-01-08 16:05:00,54.5,36.7,30.26,ENE,71,0.0,0.0,51,0.00,CLR,SCT,0.00,WeatherDisplay:10.37,2013-01-08 21:05:00,
2013-01-08 16:06:00,54.5,36.2,30.26,ENE,71,0.0,0.0,50,0.00,CLR,SCT,0.00,WeatherDisplay:10.37,2013-01-08 21:06:00,
2013-01-08 16:08:00,54.5,36.2,30.26,ENE,71,0.0,0.0,50,0.00,CLR,SCT,0.00,WeatherDisplay:10.37,2013-01-08 21:08:00,
2013-01-08 16:10:00,54.5,36.2,30.26,ENE,71,0.0,0.0,50,0.00,CLR,SCT,0.00,WeatherDisplay:10.37,2013-01-08 21:10:00,
2013-01-08 16:11:00,54.5,36.2,30.26,ENE,71,0.0,0.0,50,0.00,CLR,SCT,0.00,WeatherDisplay:10.37,2013-01-08 21:11:00,
2013-01-08 16:13:00,54.5,36.2,30.26,ENE,71,4.6,4.6,50,0.00,CLR,SCT,0.00,WeatherDisplay:10.37,2013-01-08 21:13:00,
2013-01-08 16:15:00,54.5,36.2,30.26,ENE,71,4.6,4.6,50,0.00,CLR,SCT,0.00,WeatherDisplay:10.37,2013-01-08 21:15:00,
2013-01-08 16:19:00,54.4,36.1,30.26,ENE,71,2.3,2.3,50,0.00,CLR,SCT,0.00,WeatherDisplay:10.37,2013-01-08 21:19:00,
2013-01-08 16:20:00,54.4,36.1,30.26,ENE,71,2.3,2.3,50,0.00,CLR,SCT,0.00,WeatherDisplay:10.37,2013-01-08 21:20:00,
2013-01-08 16:22:00,54.2,35.9,30.26,ENE,71,2.3,2.3,50,0.00,CLR,SCT,0.00,WeatherDisplay:10.37,2013-01-08 21:22:00,
2013-01-08 16:27:00,54.1,35.9,30.26,ENE,71,0.0,0.0,50,0.00,CLR,SCT,0.00,WeatherDisplay:10.37,2013-01-08 21:27:00,
2013-01-08 16:30:00,54.1,35.9,30.26,ENE,71,0.0,0.0,50,0.00,CLR,SCT,0.00,WeatherDisplay:10.37,2013-01-08 21:30:00,
2013-01-08 16:31:00,53.9,35.7,30.26,ENE,71,2.3,2.3,50,0.00,CLR,SCT,0.00,WeatherDisplay:10.37,2013-01-08 21:31:00,
2013-01-08 16:34:00,53.8,36.1,30.25,ENE,71,1.0,1.0,51,0.00,CLR,SCT,0.00,WeatherDisplay:10.37,2013-01-08 21:34:00,
2013-01-08 16:35:00,53.8,35.6,30.25,ENE,71,1.1,1.1,50,0.00,CLR,SCT,0.00,WeatherDisplay:10.37,2013-01-08 21:35:00,
2013-01-08 16:36:00,53.8,36.1,30.25,ENE,71,1.1,0.0,51,0.00,CLR,SCT,0.00,WeatherDisplay:10.37,2013-01-08 21:36:00,
2013-01-08 16:37:00,53.8,36.1,30.25,ENE,71,0.0,0.0,51,0.00,CLR,SCT,0.00,WeatherDisplay:10.37,2013-01-08 21:37:00,
2013-01-08 16:40:00,53.6,35.4,30.25,ENE,71,0.0,0.0,50,0.00,CLR,SCT,0.00,WeatherDisplay:10.37,2013-01-08 21:40:00,
2013-01-08 16:41:00,53.6,35.9,30.25,ENE,71,0.0,0.0,51,0.00,CLR,SCT,0.00,WeatherDisplay:10.37,2013-01-08 21:41:00,
2013-01-08 16:42:00,53.6,35.9,30.25,ENE,71,0.0,0.0,51,0.00,CLR,SCT,0.00,WeatherDisplay:10.37,2013-01-08 21:42:00,
2013-01-08 16:43:00,53.5,35.3,30.25,ENE,71,2.3,2.3,50,0.00,CLR,SCT,0.00,WeatherDisplay:10.37,2013-01-08 21:43:00,
2013-01-08 16:46:00,53.5,35.8,30.25,ENE,71,0.0,0.0,51,0.00,CLR,SCT,0.00,WeatherDisplay:10.37,2013-01-08 21:46:00,
2013-01-08 16:48:00,53.5,35.3,30.25,ENE,71,3.0,3.0,50,0.00,CLR,SCT,0.00,WeatherDisplay:10.37,2013-01-08 21:48:00,
2013-01-08 16:50:00,53.5,35.3,30.25,ENE,71,0.0,0.0,50,0.00,CLR,SCT,0.00,WeatherDisplay:10.37,2013-01-08 21:50:00,
2013-01-08 16:51:00,53.5,35.3,30.25,ENE,71,2.3,2.3,50,0.00,CLR,SCT,0.00,WeatherDisplay:10.37,2013-01-08 21:51:00,
2013-01-08 16:53:00,53.3,35.1,30.25,ENE,71,0.0,0.0,50,0.00,CLR,SCT,0.00,WeatherDisplay:10.37,2013-01-08 21:53:00,
2013-01-08 16:58:00,53.3,35.6,30.25,ENE,71,0.0,0.0,51,0.00,CLR,SCT,0.00,WeatherDisplay:10.37,2013-01-08 21:58:00,
2013-01-08 16:59:00,53.3,35.6,30.25,ENE,71,0.0,0.0,51,0.00,CLR,SCT,0.00,WeatherDisplay:10.37,2013-01-08 21:59:00,
2013-01-08 17:02:00,53.2,35.5,30.25,ENE,71,1.1,1.1,51,0.00,CLR,SCT,0.00,WeatherDisplay:10.37,2013-01-08 22:02:00,
2013-01-08 17:03:00,53.2,35.5,30.25,ENE,71,0.0,0.0,51,0.00,CLR,SCT,0.00,WeatherDisplay:10.37,2013-01-08 22:03:00,
2013-01-08 17:04:00,53.2,35.5,30.25,ENE,71,0.0,0.0,51,0.00,CLR,SCT,0.00,WeatherDisplay:10.37,2013-01-08 22:04:00,
2013-01-08 17:05:00,53.2,36.0,30.25,ENE,71,0.0,0.0,52,0.00,CLR,SCT,0.00,WeatherDisplay:10.37,2013-01-08 22:05:00,
2013-01-08 17:09:00,52.9,35.7,30.25,ENE,71,0.0,0.0,52,0.00,CLR,SCT,0.00,WeatherDisplay:10.37,2013-01-08 22:09:00,
2013-01-08 17:10:00,52.9,35.7,30.25,ENE,71,0.0,0.0,52,0.00,CLR,SCT,0.00,WeatherDisplay:10.37,2013-01-08 22:10:00,
2013-01-08 17:11:00,52.8,35.6,30.25,ENE,71,0.0,0.0,52,0.00,CLR,SCT,0.00,WeatherDisplay:10.37,2013-01-08 22:11:00,
2013-01-08 17:15:00,52.3,35.2,30.25,ENE,71,0.0,0.0,52,0.00,CLR,SCT,0.00,WeatherDisplay:10.37,2013-01-08 22:15:00,
2013-01-08 17:16:00,52.2,35.1,30.25,ENE,71,0.0,0.0,52,0.00,CLR,SCT,0.00,WeatherDisplay:10.37,2013-01-08 22:16:00,
2013-01-08 17:20:00,51.7,35.1,30.25,ENE,71,0.0,0.0,53,0.00,CLR,SCT,0.00,WeatherDisplay:10.37,2013-01-08 22:20:00,
2013-01-08 17:21:00,51.6,35.0,30.25,ENE,71,0.0,0.0,53,0.00,CLR,SCT,0.00,WeatherDisplay:10.37,2013-01-08 22:21:00,
2013-01-08 17:26:00,51.0,34.5,30.26,ENE,71,0.0,0.0,53,0.00,CLR,SCT,0.00,WeatherDisplay:10.37,2013-01-08 22:26:00,
2013-01-08 17:27:00,50.8,34.3,30.26,ENE,71,0.0,0.0,53,0.00,CLR,SCT,0.00,WeatherDisplay:10.37,2013-01-08 22:27:00,
2013-01-08 17:32:00,49.8,33.3,30.26,ENE,71,0.0,0.0,53,0.00,CLR,SCT,0.00,WeatherDisplay:10.37,2013-01-08 22:32:00,
2013-01-08 17:33:00,49.5,33.1,30.26,ENE,71,0.0,0.0,53,0.00,CLR,SCT,0.00,WeatherDisplay:10.37,2013-01-08 22:33:00,
2013-01-08 17:34:00,49.4,33.0,30.26,ENE,71,0.0,0.0,53,0.00,CLR,SCT,0.00,WeatherDisplay:10.37,2013-01-08 22:34:00,
2013-01-08 17:38:00,48.8,32.9,30.26,ENE,71,0.0,0.0,54,0.00,CLR,SCT,0.00,WeatherDisplay:10.37,2013-01-08 22:38:00,
2013-01-08 17:43:00,48.0,32.1,30.26,ENE,71,0.0,0.0,54,0.00,CLR,SCT,0.00,WeatherDisplay:10.37,2013-01-08 22:43:00,
2013-01-08 17:44:00,47.7,31.9,30.27,ENE,71,0.0,0.0,54,0.00,CLR,SCT,0.00,WeatherDisplay:10.37,2013-01-08 22:44:00,
2013-01-08 17:47:00,47.4,31.6,30.27,ENE,71,0.0,0.0,54,0.00,CLR,SCT,0.00,WeatherDisplay:10.37,2013-01-08 22:47:00,
2013-01-08 17:48:00,46.8,31.5,30.27,ENE,71,0.0,0.0,55,0.00,CLR,SCT,0.00,WeatherDisplay:10.37,2013-01-08 22:48:00,
2013-01-08 17:50:00,46.7,31.4,30.27,ENE,71,0.0,0.0,55,0.00,CLR,SCT,0.00,WeatherDisplay:10.37,2013-01-08 22:50:00,
2013-01-08 17:55:00,45.5,30.3,30.27,ENE,71,0.0,0.0,55,0.00,CLR,SCT,0.00,WeatherDisplay:10.37,2013-01-08 22:55:00,
2013-01-08 17:56:00,45.4,30.2,30.27,ENE,71,0.0,0.0,55,0.00,CLR,SCT,0.00,WeatherDisplay:10.37,2013-01-08 22:56:00,
2013-01-08 18:00:00,44.5,29.3,30.27,ENE,71,0.0,0.0,55,0.00,CLR,SCT,0.00,WeatherDisplay:10.37,2013-01-08 23:00:00,
2013-01-08 18:01:00,44.3,29.6,30.27,ENE,71,0.0,0.0,56,0.00,CLR,SCT,0.00,WeatherDisplay:10.37,2013-01-08 23:01:00,
2013-01-08 18:06:00,43.1,28.5,30.28,ENE,71,0.0,0.0,56,0.00,,SCT,0.00,WeatherDisplay:10.37,2013-01-08 23:06:00,
2013-01-08 18:07:00,42.9,28.3,30.28,ENE,71,0.0,0.0,56,0.00,,SCT,0.00,WeatherDisplay:10.37,2013-01-08 23:07:00,
2013-01-08 18:12:00,41.8,27.2,30.28,ENE,71,0.0,0.0,56,0.00,,SCT,0.00,WeatherDisplay:10.37,2013-01-08 23:12:00,
2013-01-08 18:14:00,41.3,26.8,30.28,ENE,71,0.0,0.0,56,0.00,,SCT,0.00,WeatherDisplay:10.37,2013-01-08 23:14:00,
2013-01-08 18:18:00,40.6,26.5,30.28,ENE,71,0.0,0.0,57,0.00,,SCT,0.00,WeatherDisplay:10.37,2013-01-08 23:18:00,
2013-01-08 18:20:00,40.2,26.2,30.28,ENE,71,0.0,0.0,57,0.00,,SCT,0.00,WeatherDisplay:10.37,2013-01-08 23:20:00,
2013-01-08 18:22:00,39.8,25.8,30.28,ENE,71,0.0,0.0,57,0.00,,SCT,0.00,WeatherDisplay:10.37,2013-01-08 23:22:00,
2013-01-08 18:24:00,39.3,25.7,30.28,ENE,71,0.0,0.0,58,0.00,,SCT,0.00,WeatherDisplay:10.37,2013-01-08 23:24:00,
2013-01-08 18:27:00,38.6,25.1,30.28,ENE,71,0.0,0.0,58,0.00,,SCT,0.00,WeatherDisplay:10.37,2013-01-08 23:27:00,
2013-01-08 18:30:00,38.0,24.9,30.28,ENE,71,0.0,0.0,59,0.00,,SCT,0.00,WeatherDisplay:10.37,2013-01-08 23:30:00,
2013-01-08 18:31:00,37.9,24.8,30.28,ENE,71,0.0,0.0,59,0.00,,SCT,0.00,WeatherDisplay:10.37,2013-01-08 23:31:00,
2013-01-08 18:36:00,37.2,24.6,30.28,ENE,71,0.0,0.0,60,0.00,,SCT,0.00,WeatherDisplay:10.37,2013-01-08 23:36:00,
2013-01-08 18:37:00,36.9,24.3,30.28,ENE,71,0.0,0.0,60,0.00,,SCT,0.00,WeatherDisplay:10.37,2013-01-08 23:37:00,
2013-01-08 18:41:00,36.6,23.6,30.28,ENE,71,0.0,0.0,59,0.00,,SCT,0.00,WeatherDisplay:10.37,2013-01-08 23:41:00,
2013-01-08 18:42:00,36.5,23.9,30.28,ENE,71,0.0,0.0,60,0.00,,SCT,0.00,WeatherDisplay:10.37,2013-01-08 23:42:00,
2013-01-08 18:44:00,36.3,23.7,30.28,ENE,71,0.0,0.0,60,0.00,,SCT,0.00,WeatherDisplay:10.37,2013-01-08 23:44:00,
2013-01-08 18:46:00,36.2,24.0,30.28,ENE,71,0.0,0.0,61,0.00,,SCT,0.00,WeatherDisplay:10.37,2013-01-08 23:46:00,
2013-01-08 18:48:00,35.9,23.7,30.28,ENE,71,0.0,0.0,61,0.00,,SCT,0.00,WeatherDisplay:10.37,2013-01-08 23:48:00,
2013-01-08 18:51:00,35.6,23.9,30.28,ENE,71,0.0,0.0,62,0.00,,SCT,0.00,WeatherDisplay:10.37,2013-01-08 23:51:00,
2013-01-08 18:52:00,35.6,23.9,30.28,ENE,71,0.0,0.0,62,0.00,,SCT,0.00,WeatherDisplay:10.37,2013-01-08 23:52:00,
2013-01-08 18:54:00,35.5,23.8,30.28,ENE,71,0.0,0.0,62,0.00,,SCT,0.00,WeatherDisplay:10.37,2013-01-08 23:54:00,
2013-01-08 18:57:00,35.3,24.0,30.29,ENE,71,0.0,0.0,63,0.00,,SCT,0.00,WeatherDisplay:10.37,2013-01-08 23:57:00,
2013-01-08 18:58:00,35.2,23.9,30.29,ENE,71,0.0,0.0,63,0.00,,SCT,0.00,WeatherDisplay:10.37,2013-01-08 23:58:00,
2013-01-08 19:02:00,35.0,23.7,30.28,ENE,71,0.0,0.0,63,0.00,,SCT,0.00,WeatherDisplay:10.37,2013-01-09 00:02:00,
2013-01-08 19:04:00,34.9,23.2,30.28,ENE,71,0.0,0.0,62,0.00,,SCT,0.00,WeatherDisplay:10.37,2013-01-09 00:04:00,
2013-01-08 19:08:00,34.7,23.4,30.28,ENE,71,0.0,0.0,63,0.00,,SCT,0.00,WeatherDisplay:10.37,2013-01-09 00:08:00,
2013-01-08 19:09:00,34.7,23.4,30.28,ENE,71,0.0,0.0,63,0.00,,SCT,0.00,WeatherDisplay:10.37,2013-01-09 00:09:00,
2013-01-08 19:12:00,34.4,23.1,30.28,ENE,71,0.0,0.0,63,0.00,,SCT,0.00,WeatherDisplay:10.37,2013-01-09 00:12:00,
2013-01-08 19:15:00,34.1,23.2,30.28,ENE,71,0.0,0.0,64,0.00,,SCT,0.00,WeatherDisplay:10.37,2013-01-09 00:15:00,
2013-01-08 19:17:00,34.0,23.1,30.28,ENE,71,0.0,0.0,64,0.00,,SCT,0.00,WeatherDisplay:10.37,2013-01-09 00:17:00,
2013-01-08 19:19:00,33.8,22.9,30.28,ENE,71,0.0,0.0,64,0.00,,SCT,0.00,WeatherDisplay:10.37,2013-01-09 00:19:00,
2013-01-08 19:22:00,33.7,22.8,30.28,ENE,71,0.0,0.0,64,0.00,,SCT,0.00,WeatherDisplay:10.37,2013-01-09 00:22:00,
2013-01-08 19:27:00,33.5,22.6,30.28,ENE,71,0.0,0.0,64,0.00,,SCT,0.00,WeatherDisplay:10.37,2013-01-09 00:27:00,
2013-01-08 19:28:00,33.5,22.6,30.28,ENE,71,0.0,0.0,64,0.00,,SCT,0.00,WeatherDisplay:10.37,2013-01-09 00:28:00,
2013-01-08 19:30:00,33.4,22.5,30.28,ENE,71,0.0,0.0,64,0.00,,SCT,0.00,WeatherDisplay:10.37,2013-01-09 00:30:00,
2013-01-08 19:34:00,33.4,22.9,30.29,ENE,71,0.0,0.0,65,0.00,,SCT,0.00,WeatherDisplay:10.37,2013-01-09 00:34:00,
2013-01-08 19:35:00,33.4,22.9,30.29,ENE,71,0.0,0.0,65,0.00,,SCT,0.00,WeatherDisplay:10.37,2013-01-09 00:35:00,
2013-01-08 19:36:00,33.4,22.9,30.29,ENE,71,0.0,0.0,65,0.00,,SCT,0.00,WeatherDisplay:10.37,2013-01-09 00:36:00,
2013-01-08 19:40:00,33.4,22.9,30.29,ENE,71,0.0,0.0,65,0.00,,SCT,0.00,WeatherDisplay:10.37,2013-01-09 00:40:00,
2013-01-08 19:44:00,33.2,22.7,30.29,ENE,71,0.0,0.0,65,0.00,,SCT,0.00,WeatherDisplay:10.37,2013-01-09 00:44:00,
2013-01-08 19:45:00,33.2,22.7,30.29,ENE,71,0.0,0.0,65,0.00,,SCT,0.00,WeatherDisplay:10.37,2013-01-09 00:45:00,
2013-01-08 19:46:00,33.2,22.7,30.29,ENE,71,0.0,0.0,65,0.00,,SCT,0.00,WeatherDisplay:10.37,2013-01-09 00:46:00,
2013-01-08 19:50:00,33.1,22.6,30.29,ENE,71,0.0,0.0,65,0.00,,SCT,0.00,WeatherDisplay:10.37,2013-01-09 00:50:00,
2013-01-08 19:52:00,33.1,22.6,30.29,ENE,71,0.0,0.0,65,0.00,,SCT,0.00,WeatherDisplay:10.37,2013-01-09 00:52:00,
2013-01-08 19:53:00,33.1,22.6,30.29,ENE,71,0.0,0.0,65,0.00,,SCT,0.00,WeatherDisplay:10.37,2013-01-09 00:53:00,
2013-01-08 19:57:00,32.9,22.4,30.29,ENE,71,0.0,0.0,65,0.00,,SCT,0.00,WeatherDisplay:10.37,2013-01-09 00:57:00,
2013-01-08 19:58:00,32.9,22.4,30.29,ENE,71,0.0,0.0,65,0.00,,SCT,0.00,WeatherDisplay:10.37,2013-01-09 00:58:00,
2013-01-08 20:00:00,32.8,22.3,30.29,ENE,71,0.0,0.0,65,0.00,,SCT,0.00,WeatherDisplay:10.37,2013-01-09 01:00:00,
2013-01-08 20:03:00,32.7,22.2,30.29,ENE,71,0.0,0.0,65,0.00,,SCT,0.00,WeatherDisplay:10.37,2013-01-09 01:03:00,
2013-01-08 20:04:00,32.7,22.6,30.29,ENE,71,0.0,0.0,66,0.00,,SCT,0.00,WeatherDisplay:10.37,2013-01-09 01:04:00,
2013-01-08 20:06:00,32.7,22.6,30.29,ENE,71,0.0,0.0,66,0.00,CLR,SCT,0.00,WeatherDisplay:10.37,2013-01-09 01:06:00,
2013-01-08 20:08:00,32.5,22.4,30.29,ENE,71,0.0,0.0,66,0.00,CLR,SCT,0.00,WeatherDisplay:10.37,2013-01-09 01:08:00,
2013-01-08 20:10:00,32.5,22.4,30.29,ENE,71,0.0,0.0,66,0.00,CLR,SCT,0.00,WeatherDisplay:10.37,2013-01-09 01:10:00,
2013-01-08 20:12:00,32.5,22.4,30.29,ENE,71,0.0,0.0,66,0.00,CLR,SCT,0.00,WeatherDisplay:10.37,2013-01-09 01:12:00,
2013-01-08 20:16:00,32.4,22.3,30.29,ENE,71,0.0,0.0,66,0.00,CLR,SCT,0.00,WeatherDisplay:10.37,2013-01-09 01:16:00,
2013-01-08 20:17:00,32.4,22.3,30.29,ENE,71,0.0,0.0,66,0.00,CLR,SCT,0.00,WeatherDisplay:10.37,2013-01-09 01:17:00,
2013-01-08 20:22:00,32.1,22.0,30.29,ENE,71,0.0,0.0,66,0.00,CLR,SCT,0.00,WeatherDisplay:10.37,2013-01-09 01:22:00,
2013-01-08 20:23:00,32.1,22.4,30.29,ENE,71,0.0,0.0,67,0.00,CLR,SCT,0.00,WeatherDisplay:10.37,2013-01-09 01:23:00,
2013-01-08 20:24:00,32.1,22.4,30.29,ENE,71,0.0,0.0,67,0.00,CLR,SCT,0.00,WeatherDisplay:10.37,2013-01-09 01:24:00,
2013-01-08 20:27:00,31.9,22.2,30.29,ENE,71,0.0,0.0,67,0.00,CLR,SCT,0.00,WeatherDisplay:10.37,2013-01-09 01:27:00,
2013-01-08 20:30:00,31.9,22.2,30.29,ENE,71,0.0,0.0,67,0.00,CLR,SCT,0.00,WeatherDisplay:10.37,2013-01-09 01:30:00,
2013-01-08 20:32:00,31.8,22.1,30.29,ENE,71,0.0,0.0,67,0.00,CLR,SCT,0.00,WeatherDisplay:10.37,2013-01-09 01:32:00,
2013-01-08 20:34:00,31.8,21.7,30.29,ENE,71,0.0,0.0,66,0.00,CLR,SCT,0.00,WeatherDisplay:10.37,2013-01-09 01:34:00,
2013-01-08 20:37:00,31.8,21.7,30.29,ENE,71,0.0,0.0,66,0.00,CLR,SCT,0.00,WeatherDisplay:10.37,2013-01-09 01:37:00,
2013-01-08 20:39:00,31.6,21.5,30.29,ENE,71,0.0,0.0,66,0.00,CLR,SCT,0.00,WeatherDisplay:10.37,2013-01-09 01:39:00,
2013-01-08 20:43:00,31.6,22.2,30.29,ENE,71,0.0,0.0,68,0.00,CLR,SCT,0.00,WeatherDisplay:10.37,2013-01-09 01:43:00,
2013-01-08 20:44:00,31.5,22.1,30.29,ENE,71,0.0,0.0,68,0.00,CLR,SCT,0.00,WeatherDisplay:10.37,2013-01-09 01:44:00,
2013-01-08 20:49:00,31.3,22.0,30.29,ENE,71,0.0,0.0,68,0.00,CLR,SCT,0.00,WeatherDisplay:10.37,2013-01-09 01:49:00,
2013-01-08 20:50:00,31.3,22.0,30.29,ENE,71,0.0,0.0,68,0.00,CLR,SCT,0.00,WeatherDisplay:10.37,2013-01-09 01:50:00,
2013-01-08 20:54:00,31.2,22.2,30.29,ENE,71,0.0,0.0,69,0.00,CLR,SCT,0.00,WeatherDisplay:10.37,2013-01-09 01:54:00,
2013-01-08 20:55:00,31.2,21.9,30.29,ENE,71,0.0,0.0,68,0.00,CLR,SCT,0.00,WeatherDisplay:10.37,2013-01-09 01:55:00,
2013-01-08 20:57:00,31.0,21.7,30.29,ENE,71,0.0,0.0,68,0.00,CLR,SCT,0.00,WeatherDisplay:10.37,2013-01-09 01:57:00,
2013-01-08 21:00:00,30.9,21.6,30.29,ENE,71,0.0,0.0,68,0.00,CLR,SCT,0.00,WeatherDisplay:10.37,2013-01-09 02:00:00,
2013-01-08 21:01:00,30.9,21.6,30.29,ENE,71,0.0,0.0,68,0.00,CLR,SCT,0.00,WeatherDisplay:10.37,2013-01-09 02:01:00,
2013-01-08 21:03:00,30.9,21.6,30.29,ENE,71,0.0,0.0,68,0.00,CLR,SCT,0.00,WeatherDisplay:10.37,2013-01-09 02:03:00,
2013-01-08 21:08:00,30.7,21.4,30.28,ENE,71,0.0,0.0,68,0.00,,SCT,0.00,WeatherDisplay:10.37,2013-01-09 02:08:00,
2013-01-08 21:09:00,30.7,21.4,30.28,ENE,71,0.0,0.0,68,0.00,,SCT,0.00,WeatherDisplay:10.37,2013-01-09 02:09:00,
2013-01-08 21:11:00,30.7,21.7,30.28,ENE,71,0.0,0.0,69,0.00,,SCT,0.00,WeatherDisplay:10.37,2013-01-09 02:11:00,
2013-01-08 21:13:00,30.7,21.7,30.28,ENE,71,0.0,0.0,69,0.00,,SCT,0.00,WeatherDisplay:10.37,2013-01-09 02:13:00,
2013-01-08 21:15:00,30.7,21.7,30.28,ENE,71,0.0,0.0,69,0.00,,SCT,0.00,WeatherDisplay:10.37,2013-01-09 02:15:00,
2013-01-08 21:16:00,30.7,21.7,30.28,ENE,71,0.0,0.0,69,0.00,,SCT,0.00,WeatherDisplay:10.37,2013-01-09 02:16:00,
2013-01-08 21:19:00,30.6,21.6,30.28,ENE,71,0.0,0.0,69,0.00,,SCT,0.00,WeatherDisplay:10.37,2013-01-09 02:19:00,
2013-01-08 21:21:00,30.6,21.6,30.29,ENE,71,0.0,0.0,69,0.00,,SCT,0.00,WeatherDisplay:10.37,2013-01-09 02:21:00,
2013-01-08 21:22:00,30.6,21.6,30.29,ENE,71,0.0,0.0,69,0.00,,SCT,0.00,WeatherDisplay:10.37,2013-01-09 02:22:00,
2013-01-08 21:25:00,30.4,21.8,30.29,ENE,71,0.0,0.0,70,0.00,,SCT,0.00,WeatherDisplay:10.37,2013-01-09 02:25:00,
2013-01-08 21:27:00,30.4,21.8,30.29,ENE,71,0.0,0.0,70,0.00,,SCT,0.00,WeatherDisplay:10.37,2013-01-09 02:27:00,
2013-01-08 21:28:00,30.4,21.8,30.29,ENE,71,0.0,0.0,70,0.00,,SCT,0.00,WeatherDisplay:10.37,2013-01-09 02:28:00,
2013-01-08 21:31:00,30.4,21.8,30.29,ENE,71,0.0,0.0,70,0.00,,SCT,0.00,WeatherDisplay:10.37,2013-01-09 02:31:00,
2013-01-08 21:32:00,30.4,21.8,30.29,ENE,71,0.0,0.0,70,0.00,,SCT,0.00,WeatherDisplay:10.37,2013-01-09 02:32:00,
2013-01-08 21:33:00,30.4,21.8,30.29,ENE,71,0.0,0.0,70,0.00,,SCT,0.00,WeatherDisplay:10.37,2013-01-09 02:33:00,
2013-01-08 21:38:00,30.4,22.1,30.29,ENE,71,0.0,0.0,71,0.00,,SCT,0.00,WeatherDisplay:10.37,2013-01-09 02:38:00,
2013-01-08 21:41:00,30.3,22.0,30.28,ENE,71,0.0,0.0,71,0.00,,SCT,0.00,WeatherDisplay:10.37,2013-01-09 02:41:00,
2013-01-08 21:42:00,30.3,21.7,30.28,ENE,71,0.0,0.0,70,0.00,,SCT,0.00,WeatherDisplay:10.37,2013-01-09 02:42:00,
2013-01-08 21:45:00,30.1,21.5,30.28,ENE,71,0.0,0.0,70,0.00,,SCT,0.00,WeatherDisplay:10.37,2013-01-09 02:45:00,
2013-01-08 21:48:00,30.1,21.8,30.28,ENE,71,0.0,0.0,71,0.00,,SCT,0.00,WeatherDisplay:10.37,2013-01-09 02:48:00,
2013-01-08 21:49:00,30.1,21.8,30.28,ENE,71,0.0,0.0,71,0.00,,SCT,0.00,WeatherDisplay:10.37,2013-01-09 02:49:00,
2013-01-08 21:50:00,30.0,21.7,30.28,ENE,71,0.0,0.0,71,0.00,,SCT,0.00,WeatherDisplay:10.37,2013-01-09 02:50:00,
2013-01-08 21:54:00,29.8,21.2,30.28,ENE,71,0.0,0.0,70,0.00,,SCT,0.00,WeatherDisplay:10.37,2013-01-09 02:54:00,
2013-01-08 21:55:00,29.8,21.2,30.28,ENE,71,0.0,0.0,70,0.00,,SCT,0.00,WeatherDisplay:10.37,2013-01-09 02:55:00,
2013-01-08 21:56:00,29.8,21.2,30.28,ENE,71,0.0,0.0,70,0.00,,SCT,0.00,WeatherDisplay:10.37,2013-01-09 02:56:00,
2013-01-08 21:59:00,29.7,21.1,30.28,ENE,71,0.0,0.0,70,0.00,,SCT,0.00,WeatherDisplay:10.37,2013-01-09 02:59:00,
2013-01-08 22:01:00,29.7,21.1,30.28,ENE,71,0.0,0.0,70,0.00,,SCT,0.00,WeatherDisplay:10.37,2013-01-09 03:01:00,
2013-01-08 22:03:00,29.5,20.9,30.28,ENE,71,0.0,0.0,70,0.00,,SCT,0.00,WeatherDisplay:10.37,2013-01-09 03:03:00,
2013-01-08 22:07:00,29.5,21.3,30.28,ENE,71,0.0,0.0,71,0.00,,SCT,0.00,WeatherDisplay:10.37,2013-01-09 03:07:00,
2013-01-08 22:11:00,29.5,21.3,30.28,ENE,71,0.0,0.0,71,0.00,,SCT,0.00,WeatherDisplay:10.37,2013-01-09 03:11:00,
2013-01-08 22:12:00,29.5,21.3,30.28,ENE,71,0.0,0.0,71,0.00,,SCT,0.00,WeatherDisplay:10.37,2013-01-09 03:12:00,
2013-01-08 22:15:00,29.7,21.4,30.27,ENE,71,0.0,0.0,71,0.00,,SCT,0.00,WeatherDisplay:10.37,2013-01-09 03:15:00,
2013-01-08 22:17:00,29.7,21.4,30.27,ENE,71,0.0,0.0,71,0.00,,SCT,0.00,WeatherDisplay:10.37,2013-01-09 03:17:00,
2013-01-08 22:22:00,29.8,21.5,30.27,ENE,71,0.0,0.0,71,0.00,,SCT,0.00,WeatherDisplay:10.37,2013-01-09 03:22:00,
2013-01-08 22:23:00,29.8,21.5,30.27,ENE,71,0.0,0.0,71,0.00,,SCT,0.00,WeatherDisplay:10.37,2013-01-09 03:23:00,
2013-01-08 22:24:00,29.8,21.5,30.27,ENE,71,0.0,0.0,71,0.00,,SCT,0.00,WeatherDisplay:10.37,2013-01-09 03:24:00,
2013-01-08 22:27:00,29.8,21.5,30.27,ENE,71,0.0,0.0,71,0.00,,SCT,0.00,WeatherDisplay:10.37,2013-01-09 03:27:00,
2013-01-08 22:31:00,29.8,21.9,30.28,ENE,71,0.0,0.0,72,0.00,,SCT,0.00,WeatherDisplay:10.37,2013-01-09 03:31:00,
2013-01-08 22:33:00,30.0,22.1,30.28,ENE,71,0.0,0.0,72,0.00,,SCT,0.00,WeatherDisplay:10.37,2013-01-09 03:33:00,
2013-01-08 22:34:00,30.0,22.1,30.28,ENE,71,0.0,0.0,72,0.00,,SCT,0.00,WeatherDisplay:10.37,2013-01-09 03:34:00,
2013-01-08 22:39:00,30.1,22.2,30.27,ENE,71,0.0,0.0,72,0.00,,SCT,0.00,WeatherDisplay:10.37,2013-01-09 03:39:00,
2013-01-08 22:40:00,30.1,22.2,30.27,ENE,71,0.0,0.0,72,0.00,,SCT,0.00,WeatherDisplay:10.37,2013-01-09 03:40:00,
2013-01-08 22:44:00,30.3,22.7,30.28,ENE,71,0.0,0.0,73,0.00,,SCT,0.00,WeatherDisplay:10.37,2013-01-09 03:44:00,
2013-01-08 22:48:00,30.4,22.8,30.28,ENE,71,0.0,0.0,73,0.00,,SCT,0.00,WeatherDisplay:10.37,2013-01-09 03:48:00,
2013-01-08 22:49:00,30.4,22.8,30.28,ENE,71,0.0,0.0,73,0.00,,SCT,0.00,WeatherDisplay:10.37,2013-01-09 03:49:00,
2013-01-08 22:51:00,30.4,22.8,30.28,ENE,71,0.0,0.0,73,0.00,,SCT,0.00,WeatherDisplay:10.37,2013-01-09 03:51:00,
2013-01-08 22:55:00,30.4,22.4,30.27,ENE,71,0.0,0.0,72,0.00,,SCT,0.00,WeatherDisplay:10.37,2013-01-09 03:55:00,
2013-01-08 22:57:00,30.4,22.8,30.28,ENE,71,0.0,0.0,73,0.00,,SCT,0.00,WeatherDisplay:10.37,2013-01-09 03:57:00,
2013-01-08 22:58:00,30.4,22.8,30.28,ENE,71,0.0,0.0,73,0.00,,SCT,0.00,WeatherDisplay:10.37,2013-01-09 03:58:00,
2013-01-08 23:00:00,30.4,22.8,30.28,ENE,71,0.0,0.0,73,0.00,,SCT,0.00,WeatherDisplay:10.37,2013-01-09 04:00:00,
2013-01-08 23:03:00,30.4,22.4,30.28,ENE,71,0.0,0.0,72,0.00,,SCT,0.00,WeatherDisplay:10.37,2013-01-09 04:03:00,
2013-01-08 23:05:00,30.4,22.4,30.28,ENE,71,0.0,0.0,72,0.00,,SCT,0.00,WeatherDisplay:10.37,2013-01-09 04:05:00,
2013-01-08 23:06:00,30.4,22.4,30.28,ENE,71,0.0,0.0,72,0.00,,SCT,0.00,WeatherDisplay:10.37,2013-01-09 04:06:00,
2013-01-08 23:08:00,30.4,22.4,30.28,ENE,71,0.0,0.0,72,0.00,,SCT,0.00,WeatherDisplay:10.37,2013-01-09 04:08:00,
2013-01-08 23:10:00,30.4,22.4,30.28,ENE,71,0.0,0.0,72,0.00,,SCT,0.00,WeatherDisplay:10.37,2013-01-09 04:10:00,
2013-01-08 23:14:00,30.3,22.4,30.27,ENE,71,0.0,0.0,72,0.00,,SCT,0.00,WeatherDisplay:10.37,2013-01-09 04:14:00,
2013-01-08 23:18:00,30.3,22.4,30.27,ENE,71,0.0,0.0,72,0.00,,SCT,0.00,WeatherDisplay:10.37,2013-01-09 04:18:00,
2013-01-08 23:19:00,30.3,22.4,30.27,ENE,71,0.0,0.0,72,0.00,,SCT,0.00,WeatherDisplay:10.37,2013-01-09 04:19:00,
2013-01-08 23:22:00,30.3,22.4,30.26,ENE,71,0.0,0.0,72,0.00,,SCT,0.00,WeatherDisplay:10.37,2013-01-09 04:22:00,
2013-01-08 23:24:00,30.3,22.4,30.26,ENE,71,0.0,0.0,72,0.00,,SCT,0.00,WeatherDisplay:10.37,2013-01-09 04:24:00,
2013-01-08 23:25:00,30.3,22.4,30.26,ENE,71,0.0,0.0,72,0.00,,SCT,0.00,WeatherDisplay:10.37,2013-01-09 04:25:00,
2013-01-08 23:28:00,30.3,22.7,30.26,ENE,71,0.0,0.0,73,0.00,,SCT,0.00,WeatherDisplay:10.37,2013-01-09 04:28:00,
2013-01-08 23:30:00,30.3,22.7,30.26,ENE,71,0.0,0.0,73,0.00,,SCT,0.00,WeatherDisplay:10.37,2013-01-09 04:30:00,
2013-01-08 23:31:00,30.3,22.7,30.27,ENE,71,0.0,0.0,73,0.00,,SCT,0.00,WeatherDisplay:10.37,2013-01-09 04:31:00,
2013-01-08 23:33:00,30.1,22.5,30.26,ENE,71,0.0,0.0,73,0.00,,SCT,0.00,WeatherDisplay:10.37,2013-01-09 04:33:00,
2013-01-08 23:36:00,30.1,22.5,30.26,ENE,71,0.0,0.0,73,0.00,,SCT,0.00,WeatherDisplay:10.37,2013-01-09 04:36:00,
2013-01-08 23:38:00,30.1,22.5,30.26,ENE,71,0.0,0.0,73,0.00,,SCT,0.00,WeatherDisplay:10.37,2013-01-09 04:38:00,
2013-01-08 23:39:00,30.1,22.5,30.26,ENE,71,0.0,0.0,73,0.00,,SCT,0.00,WeatherDisplay:10.37,2013-01-09 04:39:00,
2013-01-08 23:43:00,30.0,22.4,30.26,ENE,71,0.0,0.0,73,0.00,,SCT,0.00,WeatherDisplay:10.37,2013-01-09 04:43:00,
2013-01-08 23:44:00,30.0,22.4,30.26,ENE,71,0.0,0.0,73,0.00,,SCT,0.00,WeatherDisplay:10.37,2013-01-09 04:44:00,
2013-01-08 23:45:00,30.0,22.4,30.26,ENE,71,0.0,0.0,73,0.00,,SCT,0.00,WeatherDisplay:10.37,2013-01-09 04:45:00,
2013-01-08 23:48:00,30.0,22.7,30.27,ENE,71,0.0,0.0,74,0.00,,SCT,0.00,WeatherDisplay:10.37,2013-01-09 04:48:00,
2013-01-08 23:50:00,30.0,22.7,30.27,ENE,71,0.0,0.0,74,0.00,,SCT,0.00,WeatherDisplay:10.37,2013-01-09 04:50:00,
2013-01-08 23:51:00,30.0,22.7,30.26,ENE,71,0.0,0.0,74,0.00,,SCT,0.00,WeatherDisplay:10.37,2013-01-09 04:51:00,
2013-01-08 23:54:00,29.8,22.5,30.26,ENE,71,0.0,0.0,74,0.00,,SCT,0.00,WeatherDisplay:10.37,2013-01-09 04:54:00,
2013-01-08 23:55:00,29.8,22.5,30.26,ENE,71,0.0,0.0,74,0.00,,SCT,0.00,WeatherDisplay:10.37,2013-01-09 04:55:00,
2013-01-08 23:56:00,29.8,22.5,30.26,ENE,71,0.0,0.0,74,0.00,,SCT,0.00,WeatherDisplay:10.37,2013-01-09 04:56:00,
2013-01-08 23:59:00,29.8,22.8,30.26,ENE,71,0.0,0.0,75,0.00,,SCT,0.00,WeatherDisplay:10.37,2013-01-09 04:59:00,